Time,TemperatureF,DewpointF,PressureIn,WindDirection,WindDirectionDegrees,WindSpeedMPH,WindSpeedGustMPH,Humidity,HourlyPrecipIn,Conditions,Clouds,dailyrainin,SoftwareType,DateUTC
2013-07-19 00:00:00,77.6,70.1,29.95,NW,315,0.0,0.0,78,0.00,,,0.00,WUHU216HW,2013-07-19 05:00:00,
2013-07-19 00:02:00,77.6,70.1,29.95,NW,315,0.0,0.0,78,0.00,,,0.00,WUHU216HW,2013-07-19 05:02:00,
2013-07-19 00:03:00,77.4,70.0,29.95,NW,315,0.0,0.0,78,0.00,,,0.00,WUHU216HW,2013-07-19 05:03:00,
2013-07-19 00:05:00,77.4,70.0,29.95,NW,315,0.0,0.0,78,0.00,,,0.00,WUHU216HW,2013-07-19 05:05:00,
2013-07-19 00:06:00,77.4,70.0,29.95,NW,315,0.0,0.0,78,0.00,,,0.00,WUHU216HW,2013-07-19 05:06:00,
2013-07-19 00:08:00,77.4,70.0,29.95,NW,315,0.0,0.0,78,0.00,,,0.00,WUHU216HW,2013-07-19 05:08:00,
2013-07-19 00:09:00,77.4,70.0,29.95,NW,315,0.0,0.0,78,0.00,,,0.00,WUHU216HW,2013-07-19 05:09:00,
2013-07-19 00:10:00,77.4,70.0,29.95,NW,315,0.0,0.0,78,0.00,,,0.00,WUHU216HW,2013-07-19 05:10:00,
2013-07-19 00:12:00,77.4,70.0,29.95,NW,315,0.0,0.0,78,0.00,,,0.00,WUHU216HW,2013-07-19 05:12:00,
2013-07-19 00:13:00,77.4,70.0,29.95,NW,315,0.0,0.0,78,0.00,,,0.00,WUHU216HW,2013-07-19 05:13:00,
2013-07-19 00:14:00,77.4,70.7,29.95,NW,315,0.0,0.0,80,0.00,,,0.00,WUHU216HW,2013-07-19 05:14:00,
2013-07-19 00:15:00,77.4,71.5,29.95,NNW,338,0.0,0.0,82,0.00,,,0.00,WUHU216HW,2013-07-19 05:15:00,
2013-07-19 00:16:00,77.2,71.6,29.95,East,90,0.0,0.0,83,0.00,,,0.00,WUHU216HW,2013-07-19 05:16:00,
2013-07-19 00:18:00,77.0,71.8,29.95,ENE,68,3.4,3.4,84,0.00,,,0.00,WUHU216HW,2013-07-19 05:18:00,
2013-07-19 00:19:00,76.9,71.3,29.96,ENE,68,1.1,3.4,83,0.00,,,0.00,WUHU216HW,2013-07-19 05:19:00,
2013-07-19 00:20:00,76.9,70.6,29.96,ENE,68,2.7,3.4,81,0.00,,,0.00,WUHU216HW,2013-07-19 05:20:00,
2013-07-19 00:21:00,77.0,70.0,29.96,ENE,68,2.2,3.4,79,0.00,,,0.00,WUHU216HW,2013-07-19 05:21:00,
2013-07-19 00:22:00,77.2,70.6,29.96,ENE,68,3.4,3.4,80,0.00,,,0.00,WUHU216HW,2013-07-19 05:22:00,
2013-07-19 00:23:00,77.4,70.0,29.96,ESE,113,2.5,3.4,78,0.00,,,0.00,WUHU216HW,2013-07-19 05:23:00,
2013-07-19 00:24:00,77.8,69.6,29.97,East,90,5.4,5.4,76,0.00,,,0.00,WUHU216HW,2013-07-19 05:24:00,
2013-07-19 00:26:00,78.1,69.5,29.97,East,90,4.5,5.4,75,0.00,,,0.00,WUHU216HW,2013-07-19 05:26:00,
2013-07-19 00:27:00,78.5,69.8,29.96,NE,45,3.1,5.4,75,0.00,,,0.00,WUHU216HW,2013-07-19 05:27:00,
2013-07-19 00:28:00,78.5,69.8,29.97,East,90,2.9,5.4,75,0.00,,,0.00,WUHU216HW,2013-07-19 05:28:00,
2013-07-19 00:29:00,78.7,70.0,29.96,ENE,68,3.4,5.4,75,0.00,,,0.00,WUHU216HW,2013-07-19 05:29:00,
2013-07-19 00:30:00,78.7,70.0,29.96,ENE,68,1.8,5.4,75,0.00,,,0.00,WUHU216HW,2013-07-19 05:30:00,
2013-07-19 00:31:00,78.8,70.2,29.96,ENE,68,2.7,5.4,75,0.00,,,0.00,WUHU216HW,2013-07-19 05:31:00,
2013-07-19 00:32:00,78.8,70.2,29.96,ENE,68,2.2,5.4,75,0.00,,,0.00,WUHU216HW,2013-07-19 05:32:00,
2013-07-19 00:34:00,78.8,70.2,29.96,ENE,68,1.3,5.4,75,0.00,,,0.00,WUHU216HW,2013-07-19 05:34:00,
2013-07-19 00:35:00,78.8,70.2,29.96,East,90,0.7,4.5,75,0.00,,,0.00,WUHU216HW,2013-07-19 05:35:00,
2013-07-19 00:36:00,78.8,70.2,29.96,ENE,68,1.8,3.4,75,0.00,,,0.00,WUHU216HW,2013-07-19 05:36:00,
2013-07-19 00:37:00,78.8,70.2,29.96,East,90,2.0,3.4,75,0.00,,,0.00,WUHU216HW,2013-07-19 05:37:00,
2013-07-19 00:38:00,78.8,70.2,29.96,ENE,68,0.9,3.4,75,0.00,,,0.00,WUHU216HW,2013-07-19 05:38:00,
2013-07-19 00:39:00,78.8,70.2,29.96,East,90,1.1,2.7,75,0.00,,,0.00,WUHU216HW,2013-07-19 05:39:00,
2013-07-19 00:41:00,78.7,70.0,29.96,ENE,68,1.8,2.2,75,0.00,,,0.00,WUHU216HW,2013-07-19 05:41:00,
2013-07-19 00:42:00,78.7,70.0,29.96,NNE,23,3.4,3.4,75,0.00,,,0.00,WUHU216HW,2013-07-19 05:42:00,
2013-07-19 00:43:00,78.7,70.0,29.96,NNE,23,1.8,3.4,75,0.00,,,0.00,WUHU216HW,2013-07-19 05:43:00,
2013-07-19 00:44:00,78.7,70.0,29.96,NNE,23,2.0,3.4,75,0.00,,,0.00,WUHU216HW,2013-07-19 05:44:00,
2013-07-19 00:45:00,78.7,70.4,29.96,NE,45,1.1,3.4,76,0.00,,,0.00,WUHU216HW,2013-07-19 05:45:00,
2013-07-19 00:46:00,78.7,70.4,29.96,ENE,68,2.5,3.4,76,0.00,,,0.00,WUHU216HW,2013-07-19 05:46:00,
2013-07-19 00:47:00,78.7,70.8,29.96,NE,45,2.9,3.4,77,0.00,,,0.00,WUHU216HW,2013-07-19 05:47:00,
2013-07-19 00:49:00,78.5,70.7,29.96,ENE,68,3.8,3.8,77,0.00,,,0.00,WUHU216HW,2013-07-19 05:49:00,
2013-07-19 00:50:00,78.5,70.7,29.96,East,90,2.0,3.8,77,0.00,,,0.00,WUHU216HW,2013-07-19 05:50:00,
2013-07-19 00:51:00,78.5,71.0,29.96,ENE,68,2.7,3.8,78,0.00,,,0.00,WUHU216HW,2013-07-19 05:51:00,
2013-07-19 00:52:00,78.5,71.0,29.96,NE,45,2.5,3.8,78,0.00,,,0.00,WUHU216HW,2013-07-19 05:52:00,
2013-07-19 00:53:00,78.3,70.8,29.95,ENE,68,2.2,3.8,78,0.00,,,0.00,WUHU216HW,2013-07-19 05:53:00,
2013-07-19 00:54:00,78.3,70.8,29.96,ENE,68,2.7,3.8,78,0.00,,,0.00,WUHU216HW,2013-07-19 05:54:00,
2013-07-19 00:55:00,78.1,70.7,29.95,ENE,68,3.1,3.8,78,0.00,,,0.00,WUHU216HW,2013-07-19 05:55:00,
2013-07-19 00:57:00,78.1,71.1,29.95,NE,45,3.4,3.8,79,0.00,,,0.00,WUHU216HW,2013-07-19 05:57:00,
2013-07-19 00:58:00,78.1,71.1,29.95,NE,45,1.8,3.8,79,0.00,,,0.00,WUHU216HW,2013-07-19 05:58:00,
2013-07-19 00:59:00,78.1,71.1,29.95,ENE,68,3.8,3.8,79,0.00,,,0.00,WUHU216HW,2013-07-19 05:59:00,
2013-07-19 01:01:00,77.9,70.9,29.95,NNE,23,2.5,3.8,79,0.00,,,0.00,WUHU216HW,2013-07-19 06:01:00,
2013-07-19 01:02:00,77.9,70.9,29.95,NNE,23,2.5,3.8,79,0.00,,,0.00,WUHU216HW,2013-07-19 06:02:00,
2013-07-19 01:03:00,77.9,70.9,29.95,NNE,23,1.1,3.8,79,0.00,,,0.00,WUHU216HW,2013-07-19 06:03:00,
2013-07-19 01:04:00,77.9,71.3,29.95,East,90,1.8,3.8,80,0.00,,,0.00,WUHU216HW,2013-07-19 06:04:00,
2013-07-19 01:05:00,77.8,71.1,29.95,ENE,68,2.0,3.8,80,0.00,,,0.00,WUHU216HW,2013-07-19 06:05:00,
2013-07-19 01:06:00,77.8,71.1,29.95,ENE,68,0.9,3.8,80,0.00,,,0.00,WUHU216HW,2013-07-19 06:06:00,
2013-07-19 01:08:00,77.8,71.5,29.95,East,90,1.1,3.8,81,0.00,,,0.00,WUHU216HW,2013-07-19 06:08:00,
2013-07-19 01:09:00,77.8,71.5,29.95,East,90,0.4,3.8,81,0.00,,,0.00,WUHU216HW,2013-07-19 06:09:00,
2013-07-19 01:10:00,77.6,71.3,29.95,ENE,68,1.1,2.5,81,0.00,,,0.00,WUHU216HW,2013-07-19 06:10:00,
2013-07-19 01:11:00,77.6,71.3,29.95,East,90,0.9,2.5,81,0.00,,,0.00,WUHU216HW,2013-07-19 06:11:00,
2013-07-19 01:12:00,77.6,71.3,29.94,East,90,0.9,2.0,81,0.00,,,0.00,WUHU216HW,2013-07-19 06:12:00,
2013-07-19 01:13:00,77.4,71.5,29.94,East,90,0.7,2.0,82,0.00,,,0.00,WUHU216HW,2013-07-19 06:13:00,
2013-07-19 01:14:00,77.4,71.5,29.94,ESE,113,0.4,1.1,82,0.00,,,0.00,WUHU216HW,2013-07-19 06:14:00,
2013-07-19 01:16:00,77.4,71.5,29.94,ESE,113,2.5,2.5,82,0.00,,,0.00,WUHU216HW,2013-07-19 06:16:00,
2013-07-19 01:17:00,77.2,71.3,29.94,East,90,2.5,2.5,82,0.00,,,0.00,WUHU216HW,2013-07-19 06:17:00,
2013-07-19 01:18:00,77.2,71.6,29.94,East,90,1.1,2.5,83,0.00,,,0.00,WUHU216HW,2013-07-19 06:18:00,
2013-07-19 01:19:00,77.2,71.3,29.94,East,90,0.4,2.5,82,0.00,,,0.00,WUHU216HW,2013-07-19 06:19:00,
2013-07-19 01:20:00,77.2,71.6,29.94,ENE,68,1.1,2.5,83,0.00,,,0.00,WUHU216HW,2013-07-19 06:20:00,
2013-07-19 01:21:00,77.2,71.6,29.95,East,90,0.0,2.5,83,0.00,,,0.00,WUHU216HW,2013-07-19 06:21:00,
2013-07-19 01:22:00,77.2,71.6,29.95,ENE,68,0.9,2.5,83,0.00,,,0.00,WUHU216HW,2013-07-19 06:22:00,
2013-07-19 01:24:00,77.0,71.5,29.94,East,90,0.9,2.5,83,0.00,,,0.00,WUHU216HW,2013-07-19 06:24:00,
2013-07-19 01:25:00,77.0,71.5,29.94,ENE,68,0.7,2.5,83,0.00,,,0.00,WUHU216HW,2013-07-19 06:25:00,
2013-07-19 01:26:00,77.0,71.5,29.94,ENE,68,0.4,2.5,83,0.00,,,0.00,WUHU216HW,2013-07-19 06:26:00,
2013-07-19 01:27:00,77.0,71.5,29.94,East,90,0.4,1.6,83,0.00,,,0.00,WUHU216HW,2013-07-19 06:27:00,
2013-07-19 01:28:00,77.0,71.5,29.94,ENE,68,2.9,2.9,83,0.00,,,0.00,WUHU216HW,2013-07-19 06:28:00,
2013-07-19 01:29:00,77.0,71.8,29.94,East,90,1.1,2.9,84,0.00,,,0.00,WUHU216HW,2013-07-19 06:29:00,
2013-07-19 01:31:00,77.0,71.8,29.94,SE,135,2.0,2.9,84,0.00,,,0.00,WUHU216HW,2013-07-19 06:31:00,
2013-07-19 01:32:00,77.0,71.8,29.94,ESE,113,1.1,2.9,84,0.00,,,0.00,WUHU216HW,2013-07-19 06:32:00,
2013-07-19 01:33:00,76.9,71.6,29.94,East,90,1.1,2.9,84,0.00,,,0.00,WUHU216HW,2013-07-19 06:33:00,
2013-07-19 01:34:00,76.9,71.6,29.94,East,90,1.3,2.9,84,0.00,,,0.00,WUHU216HW,2013-07-19 06:34:00,
2013-07-19 01:35:00,76.9,71.6,29.94,ESE,113,2.5,2.9,84,0.00,,,0.00,WUHU216HW,2013-07-19 06:35:00,
2013-07-19 01:36:00,76.9,71.6,29.94,ENE,68,0.7,2.9,84,0.00,,,0.00,WUHU216HW,2013-07-19 06:36:00,
2013-07-19 01:37:00,76.7,71.8,29.94,ESE,113,2.5,2.9,85,0.00,,,0.00,WUHU216HW,2013-07-19 06:37:00,
2013-07-19 01:39:00,76.7,71.8,29.94,ENE,68,1.8,2.5,85,0.00,,,0.00,WUHU216HW,2013-07-19 06:39:00,
2013-07-19 01:40:00,76.7,71.8,29.94,SE,135,3.1,3.1,85,0.00,,,0.00,WUHU216HW,2013-07-19 06:40:00,
2013-07-19 01:41:00,76.7,71.5,29.95,ESE,113,3.1,3.1,84,0.00,,,0.00,WUHU216HW,2013-07-19 06:41:00,
2013-07-19 01:42:00,76.7,71.8,29.94,ESE,113,1.1,3.1,85,0.00,,,0.00,WUHU216HW,2013-07-19 06:42:00,
2013-07-19 01:43:00,76.7,71.8,29.94,ENE,68,2.0,3.1,85,0.00,,,0.00,WUHU216HW,2013-07-19 06:43:00,
2013-07-19 01:44:00,76.5,71.6,29.94,ESE,113,1.1,3.1,85,0.00,,,0.00,WUHU216HW,2013-07-19 06:44:00,
2013-07-19 01:45:00,76.5,71.6,29.94,East,90,1.8,3.1,85,0.00,,,0.00,WUHU216HW,2013-07-19 06:45:00,
2013-07-19 01:47:00,76.5,71.6,29.95,SE,135,1.3,3.1,85,0.00,,,0.00,WUHU216HW,2013-07-19 06:47:00,
2013-07-19 01:48:00,76.5,71.6,29.95,East,90,0.4,3.1,85,0.00,,,0.00,WUHU216HW,2013-07-19 06:48:00,
2013-07-19 01:49:00,76.5,71.6,29.95,East,90,2.7,3.1,85,0.00,,,0.00,WUHU216HW,2013-07-19 06:49:00,
2013-07-19 01:50:00,76.3,71.5,29.95,ENE,68,1.8,3.1,85,0.00,,,0.00,WUHU216HW,2013-07-19 06:50:00,
2013-07-19 01:51:00,76.3,71.5,29.95,ENE,68,2.0,2.7,85,0.00,,,0.00,WUHU216HW,2013-07-19 06:51:00,
2013-07-19 01:52:00,76.3,71.1,29.95,East,90,5.4,5.4,84,0.00,,,0.00,WUHU216HW,2013-07-19 06:52:00,
2013-07-19 01:53:00,76.3,71.1,29.94,ESE,113,4.5,5.4,84,0.00,,,0.00,WUHU216HW,2013-07-19 06:53:00,
2013-07-19 01:55:00,76.1,71.0,29.95,ESE,113,2.5,5.4,84,0.00,,,0.00,WUHU216HW,2013-07-19 06:55:00,
2013-07-19 01:56:00,76.1,70.7,29.95,East,90,3.1,5.4,83,0.00,,,0.00,WUHU216HW,2013-07-19 06:56:00,
2013-07-19 01:57:00,76.1,70.7,29.95,ESE,113,2.5,5.4,83,0.00,,,0.00,WUHU216HW,2013-07-19 06:57:00,
2013-07-19 01:58:00,76.1,71.0,29.95,ESE,113,2.5,5.4,84,0.00,,,0.00,WUHU216HW,2013-07-19 06:58:00,
2013-07-19 02:00:00,76.0,70.5,29.95,SE,135,1.8,5.4,83,0.00,,,0.00,WUHU216HW,2013-07-19 07:00:00,
2013-07-19 02:01:00,76.0,70.8,29.95,ESE,113,0.9,5.4,84,0.00,,,0.00,WUHU216HW,2013-07-19 07:01:00,
2013-07-19 02:02:00,76.0,70.8,29.95,ESE,113,1.1,4.5,84,0.00,,,0.00,WUHU216HW,2013-07-19 07:02:00,
2013-07-19 02:03:00,76.0,70.5,29.95,ESE,113,0.9,3.1,83,0.00,,,0.00,WUHU216HW,2013-07-19 07:03:00,
2013-07-19 02:05:00,76.0,70.8,29.95,SE,135,0.9,3.1,84,0.00,,,0.00,WUHU216HW,2013-07-19 07:05:00,
2013-07-19 02:06:00,76.0,70.8,29.95,East,90,1.8,3.1,84,0.00,,,0.00,WUHU216HW,2013-07-19 07:06:00,
2013-07-19 02:07:00,76.0,70.8,29.94,ESE,113,1.1,2.5,84,0.00,,,0.00,WUHU216HW,2013-07-19 07:07:00,
2013-07-19 02:08:00,76.0,70.8,29.94,ESE,113,1.3,2.5,84,0.00,,,0.00,WUHU216HW,2013-07-19 07:08:00,
2013-07-19 02:09:00,75.8,70.7,29.94,SE,135,0.7,1.8,84,0.00,,,0.00,WUHU216HW,2013-07-19 07:09:00,
2013-07-19 02:10:00,75.8,70.7,29.94,SE,135,0.7,1.8,84,0.00,,,0.00,WUHU216HW,2013-07-19 07:10:00,
2013-07-19 02:11:00,75.8,70.7,29.94,SSE,158,1.3,1.8,84,0.00,,,0.00,WUHU216HW,2013-07-19 07:11:00,
2013-07-19 02:13:00,75.8,70.7,29.95,SE,135,0.0,1.8,84,0.00,,,0.00,WUHU216HW,2013-07-19 07:13:00,
2013-07-19 02:14:00,75.8,70.7,29.95,SE,135,0.7,1.8,84,0.00,,,0.00,WUHU216HW,2013-07-19 07:14:00,
2013-07-19 02:15:00,75.8,70.7,29.94,South,180,0.2,1.8,84,0.00,,,0.00,WUHU216HW,2013-07-19 07:15:00,
2013-07-19 02:16:00,75.8,70.3,29.95,South,180,0.0,1.3,83,0.00,,,0.00,WUHU216HW,2013-07-19 07:16:00,
2013-07-19 02:17:00,75.6,70.1,29.95,South,180,0.0,1.3,83,0.00,,,0.00,WUHU216HW,2013-07-19 07:17:00,
2013-07-19 02:18:00,75.6,70.1,29.94,SE,135,0.4,1.3,83,0.00,,,0.00,WUHU216HW,2013-07-19 07:18:00,
2013-07-19 02:20:00,75.6,70.5,29.94,SE,135,1.8,1.8,84,0.00,,,0.00,WUHU216HW,2013-07-19 07:20:00,
2013-07-19 02:21:00,75.6,70.1,29.94,SE,135,0.0,1.8,83,0.00,,,0.00,WUHU216HW,2013-07-19 07:21:00,
2013-07-19 02:22:00,75.6,70.1,29.94,SE,135,0.0,1.8,83,0.00,,,0.00,WUHU216HW,2013-07-19 07:22:00,
2013-07-19 02:23:00,75.6,70.1,29.94,SE,135,0.0,1.8,83,0.00,,,0.00,WUHU216HW,2013-07-19 07:23:00,
2013-07-19 02:24:00,75.6,70.1,29.95,ESE,113,0.9,1.8,83,0.00,,,0.00,WUHU216HW,2013-07-19 07:24:00,
2013-07-19 02:25:00,75.6,70.1,29.95,East,90,1.8,1.8,83,0.00,,,0.00,WUHU216HW,2013-07-19 07:25:00,
2013-07-19 02:26:00,75.6,70.1,29.94,SE,135,0.0,1.8,83,0.00,,,0.00,WUHU216HW,2013-07-19 07:26:00,
2013-07-19 02:28:00,75.6,70.1,29.94,SE,135,0.4,1.8,83,0.00,,,0.00,WUHU216HW,2013-07-19 07:28:00,
2013-07-19 02:29:00,75.6,70.1,29.94,SSW,203,0.0,1.8,83,0.00,,,0.00,WUHU216HW,2013-07-19 07:29:00,
2013-07-19 02:30:00,75.6,70.1,29.94,SSW,203,0.0,1.8,83,0.00,,,0.00,WUHU216HW,2013-07-19 07:30:00,
2013-07-19 02:31:00,75.6,70.1,29.95,SE,135,0.0,1.8,83,0.00,,,0.00,WUHU216HW,2013-07-19 07:31:00,
2013-07-19 02:32:00,75.6,70.1,29.95,SE,135,0.0,1.8,83,0.00,,,0.00,WUHU216HW,2013-07-19 07:32:00,
2013-07-19 02:33:00,75.6,70.1,29.94,SE,135,1.6,1.8,83,0.00,,,0.00,WUHU216HW,2013-07-19 07:33:00,
2013-07-19 02:34:00,75.6,70.1,29.95,SE,135,0.7,1.8,83,0.00,,,0.00,WUHU216HW,2013-07-19 07:34:00,
2013-07-19 02:36:00,75.6,70.1,29.95,SE,135,0.4,1.8,83,0.00,,,0.00,WUHU216HW,2013-07-19 07:36:00,
2013-07-19 02:37:00,75.8,70.3,29.95,SE,135,0.9,1.6,83,0.00,,,0.00,WUHU216HW,2013-07-19 07:37:00,
2013-07-19 02:38:00,75.6,70.1,29.95,SE,135,0.4,1.6,83,0.00,,,0.00,WUHU216HW,2013-07-19 07:38:00,
2013-07-19 02:39:00,75.6,70.5,29.95,ESE,113,1.1,1.6,84,0.00,,,0.00,WUHU216HW,2013-07-19 07:39:00,
2013-07-19 02:40:00,75.6,70.5,29.95,ESE,113,0.9,1.6,84,0.00,,,0.00,WUHU216HW,2013-07-19 07:40:00,
2013-07-19 02:41:00,75.6,70.1,29.95,SE,135,0.7,1.6,83,0.00,,,0.00,WUHU216HW,2013-07-19 07:41:00,
2013-07-19 02:43:00,75.6,70.5,29.95,ESE,113,1.8,1.8,84,0.00,,,0.00,WUHU216HW,2013-07-19 07:43:00,
2013-07-19 02:44:00,75.6,70.5,29.94,ESE,113,0.4,1.8,84,0.00,,,0.00,WUHU216HW,2013-07-19 07:44:00,
2013-07-19 02:45:00,75.6,70.5,29.94,ESE,113,0.4,1.8,84,0.00,,,0.00,WUHU216HW,2013-07-19 07:45:00,
2013-07-19 02:46:00,75.6,70.5,29.94,SE,135,1.1,1.8,84,0.00,,,0.00,WUHU216HW,2013-07-19 07:46:00,
2013-07-19 02:47:00,75.6,70.1,29.95,SE,135,0.0,1.8,83,0.00,,,0.00,WUHU216HW,2013-07-19 07:47:00,
2013-07-19 02:48:00,75.6,70.1,29.94,SE,135,0.9,1.8,83,0.00,,,0.00,WUHU216HW,2013-07-19 07:48:00,
2013-07-19 02:49:00,75.6,70.1,29.94,SE,135,0.4,1.8,83,0.00,,,0.00,WUHU216HW,2013-07-19 07:49:00,
2013-07-19 02:51:00,75.6,70.1,29.94,SSE,158,1.3,1.8,83,0.00,,,0.00,WUHU216HW,2013-07-19 07:51:00,
2013-07-19 02:52:00,75.6,70.5,29.94,ESE,113,1.6,1.8,84,0.00,,,0.00,WUHU216HW,2013-07-19 07:52:00,
2013-07-19 02:53:00,75.6,70.5,29.94,SE,135,1.1,1.6,84,0.00,,,0.00,WUHU216HW,2013-07-19 07:53:00,
2013-07-19 02:54:00,75.6,70.5,29.94,ESE,113,1.1,1.6,84,0.00,,,0.00,WUHU216HW,2013-07-19 07:54:00,
2013-07-19 02:55:00,75.6,70.5,29.94,SSE,158,2.9,2.9,84,0.00,,,0.00,WUHU216HW,2013-07-19 07:55:00,
2013-07-19 02:56:00,75.6,70.5,29.94,SE,135,1.3,2.9,84,0.00,,,0.00,WUHU216HW,2013-07-19 07:56:00,
2013-07-19 02:57:00,75.6,70.5,29.94,SE,135,2.2,2.9,84,0.00,,,0.00,WUHU216HW,2013-07-19 07:57:00,
2013-07-19 02:59:00,75.6,70.5,29.94,SSE,158,1.1,2.9,84,0.00,,,0.00,WUHU216HW,2013-07-19 07:59:00,
2013-07-19 03:00:00,75.6,70.5,29.94,SSE,158,1.1,2.9,84,0.00,,,0.00,WUHU216HW,2013-07-19 08:00:00,
2013-07-19 03:02:00,75.6,70.1,29.94,ESE,113,1.6,2.9,83,0.00,,,0.00,WUHU216HW,2013-07-19 08:02:00,
2013-07-19 03:03:00,75.6,70.1,29.94,ESE,113,1.1,2.9,83,0.00,,,0.00,WUHU216HW,2013-07-19 08:03:00,
2013-07-19 03:04:00,75.6,70.1,29.94,ESE,113,1.1,2.9,83,0.00,,,0.00,WUHU216HW,2013-07-19 08:04:00,
2013-07-19 03:05:00,75.6,70.1,29.94,SSE,158,0.2,2.9,83,0.00,,,0.00,WUHU216HW,2013-07-19 08:05:00,
2013-07-19 03:06:00,75.6,70.1,29.93,ESE,113,1.3,2.2,83,0.00,,,0.00,WUHU216HW,2013-07-19 08:06:00,
2013-07-19 03:07:00,75.6,70.1,29.94,SE,135,0.7,1.6,83,0.00,,,0.00,WUHU216HW,2013-07-19 08:07:00,
2013-07-19 03:09:00,75.6,70.1,29.93,SE,135,1.3,1.6,83,0.00,,,0.00,WUHU216HW,2013-07-19 08:09:00,
2013-07-19 03:10:00,75.6,70.1,29.94,ESE,113,2.0,2.0,83,0.00,,,0.00,WUHU216HW,2013-07-19 08:10:00,
2013-07-19 03:11:00,75.6,70.1,29.94,SE,135,2.2,2.2,83,0.00,,,0.00,WUHU216HW,2013-07-19 08:11:00,
2013-07-19 03:16:00,75.6,70.1,29.93,SSE,158,0.7,2.5,83,0.00,,,0.00,WUHU216HW,2013-07-19 08:16:00,
2013-07-19 03:21:00,75.6,70.1,29.93,SSW,203,2.0,2.5,83,0.00,,,0.00,WUHU216HW,2013-07-19 08:21:00,
2013-07-19 03:26:00,75.6,69.8,29.93,SE,135,1.1,2.0,82,0.00,,,0.00,WUHU216HW,2013-07-19 08:26:00,
2013-07-19 03:31:00,75.6,69.8,29.93,SSE,158,1.6,1.6,82,0.00,,,0.00,WUHU216HW,2013-07-19 08:31:00,
2013-07-19 03:36:00,75.6,69.8,29.93,ESE,113,1.1,1.6,82,0.00,,,0.00,WUHU216HW,2013-07-19 08:36:00,
2013-07-19 03:41:00,75.6,69.8,29.93,ESE,113,0.4,1.8,82,0.00,,,0.00,WUHU216HW,2013-07-19 08:41:00,
2013-07-19 03:46:00,75.6,70.1,29.94,SSE,158,1.1,1.8,83,0.00,,,0.00,WUHU216HW,2013-07-19 08:46:00,
2013-07-19 03:51:00,75.4,69.9,29.94,ESE,113,1.8,2.2,83,0.00,,,0.00,WUHU216HW,2013-07-19 08:51:00,
2013-07-19 03:56:00,75.4,69.9,29.93,SSE,158,2.0,2.2,83,0.00,,,0.00,WUHU216HW,2013-07-19 08:56:00,
2013-07-19 04:01:00,75.4,69.9,29.93,SE,135,0.4,2.0,83,0.00,,,0.00,WUHU216HW,2013-07-19 09:01:00,
2013-07-19 04:06:00,75.4,69.9,29.93,SE,135,0.0,1.1,83,0.00,,,0.00,WUHU216HW,2013-07-19 09:06:00,
2013-07-19 04:11:00,75.2,69.8,29.93,SE,135,0.0,0.9,83,0.00,,,0.00,WUHU216HW,2013-07-19 09:11:00,
2013-07-19 04:16:00,75.2,69.8,29.93,SSE,158,0.0,1.3,83,0.00,,,0.00,WUHU216HW,2013-07-19 09:16:00,
2013-07-19 04:21:00,75.2,69.8,29.93,SE,135,0.4,1.3,83,0.00,,,0.00,WUHU216HW,2013-07-19 09:21:00,
2013-07-19 04:26:00,75.2,69.8,29.93,SE,135,0.7,1.6,83,0.00,,,0.00,WUHU216HW,2013-07-19 09:26:00,
2013-07-19 04:31:00,75.2,69.8,29.93,SE,135,0.4,1.6,83,0.00,,,0.00,WUHU216HW,2013-07-19 09:31:00,
2013-07-19 04:36:00,75.1,69.6,29.93,SE,135,0.0,1.3,83,0.00,,,0.00,WUHU216HW,2013-07-19 09:36:00,
2013-07-19 04:41:00,75.1,69.6,29.93,ESE,113,0.0,1.1,83,0.00,,,0.00,WUHU216HW,2013-07-19 09:41:00,
2013-07-19 04:46:00,75.1,69.6,29.93,SE,135,0.0,0.0,83,0.00,,,0.00,WUHU216HW,2013-07-19 09:46:00,
2013-07-19 04:51:00,74.9,69.4,29.94,SE,135,0.0,0.0,83,0.00,,,0.00,WUHU216HW,2013-07-19 09:51:00,
2013-07-19 04:56:00,74.9,69.4,29.93,SE,135,0.0,0.0,83,0.00,,,0.00,WUHU216HW,2013-07-19 09:56:00,
2013-07-19 05:01:00,74.9,69.4,29.93,SE,135,0.0,0.0,83,0.00,,,0.00,WUHU216HW,2013-07-19 10:01:00,
2013-07-19 05:06:00,74.9,69.4,29.93,SE,135,0.0,0.0,83,0.00,,,0.00,WUHU216HW,2013-07-19 10:06:00,
2013-07-19 05:11:00,74.7,69.6,29.93,SSE,158,0.0,0.0,84,0.00,,,0.00,WUHU216HW,2013-07-19 10:11:00,
2013-07-19 05:16:00,74.7,69.6,29.94,SSW,203,0.0,0.0,84,0.00,,,0.00,WUHU216HW,2013-07-19 10:16:00,
2013-07-19 05:21:00,74.7,69.9,29.93,WSW,248,0.0,0.0,85,0.00,,,0.00,WUHU216HW,2013-07-19 10:21:00,
2013-07-19 05:26:00,74.5,69.4,29.94,West,270,0.0,0.0,84,0.00,,,0.00,WUHU216HW,2013-07-19 10:26:00,
2013-07-19 05:31:00,74.5,69.8,29.93,WSW,248,0.0,0.0,85,0.00,,,0.00,WUHU216HW,2013-07-19 10:31:00,
2013-07-19 05:36:00,74.5,69.8,29.93,SSW,203,0.4,0.4,85,0.00,,,0.00,WUHU216HW,2013-07-19 10:36:00,
2013-07-19 05:41:00,74.5,69.8,29.93,SSW,203,0.0,0.4,85,0.00,,,0.00,WUHU216HW,2013-07-19 10:41:00,
2013-07-19 05:46:00,74.5,69.4,29.93,SSW,203,0.0,0.4,84,0.00,,,0.00,WUHU216HW,2013-07-19 10:46:00,
2013-07-19 05:51:00,74.3,69.2,29.93,SSW,203,0.0,0.0,84,0.00,,,0.00,WUHU216HW,2013-07-19 10:51:00,
2013-07-19 05:56:00,74.2,69.0,29.93,SSW,203,0.0,0.0,84,0.00,,,0.00,WUHU216HW,2013-07-19 10:56:00,
2013-07-19 06:01:00,74.2,69.4,29.93,SW,225,0.0,0.0,85,0.00,,,0.00,WUHU216HW,2013-07-19 11:01:00,
2013-07-19 06:06:00,74.2,69.4,29.93,SW,225,0.0,0.0,85,0.00,,,0.00,WUHU216HW,2013-07-19 11:06:00,
2013-07-19 06:11:00,74.2,69.4,29.94,SW,225,0.0,0.0,85,0.00,,,0.00,WUHU216HW,2013-07-19 11:11:00,
2013-07-19 06:16:00,74.0,69.2,29.94,SW,225,0.0,0.4,85,0.00,,,0.00,WUHU216HW,2013-07-19 11:16:00,
2013-07-19 06:21:00,74.0,69.2,29.94,SW,225,0.0,0.4,85,0.00,,,0.00,WUHU216HW,2013-07-19 11:21:00,
2013-07-19 06:26:00,74.0,69.2,29.94,SW,225,0.0,0.0,85,0.00,,,0.00,WUHU216HW,2013-07-19 11:26:00,
2013-07-19 06:31:00,74.0,69.2,29.94,SSW,203,0.0,0.0,85,0.00,,,0.00,WUHU216HW,2013-07-19 11:31:00,
2013-07-19 06:36:00,74.0,69.2,29.94,SSW,203,0.0,0.0,85,0.00,,,0.00,WUHU216HW,2013-07-19 11:36:00,
2013-07-19 06:41:00,74.2,69.4,29.94,SE,135,0.0,0.9,85,0.00,,,0.00,WUHU216HW,2013-07-19 11:41:00,
2013-07-19 06:46:00,74.2,69.4,29.95,SE,135,0.0,0.9,85,0.00,,,0.00,WUHU216HW,2013-07-19 11:46:00,
2013-07-19 06:51:00,74.2,69.4,29.95,SSE,158,0.0,0.0,85,0.00,,,0.00,WUHU216HW,2013-07-19 11:51:00,
2013-07-19 06:56:00,74.2,69.4,29.95,SSE,158,0.0,0.0,85,0.00,,,0.00,WUHU216HW,2013-07-19 11:56:00,
2013-07-19 07:01:00,74.3,69.6,29.95,SSW,203,0.0,0.0,85,0.00,,,0.00,WUHU216HW,2013-07-19 12:01:00,
2013-07-19 07:06:00,74.3,69.9,29.95,SSW,203,0.4,0.4,86,0.00,,,0.00,WUHU216HW,2013-07-19 12:06:00,
2013-07-19 07:11:00,74.5,70.1,29.94,SW,225,0.0,0.4,86,0.00,,,0.00,WUHU216HW,2013-07-19 12:11:00,
2013-07-19 07:16:00,74.7,70.3,29.95,SSW,203,0.0,0.7,86,0.00,,,0.00,WUHU216HW,2013-07-19 12:16:00,
2013-07-19 07:21:00,74.9,70.5,29.95,SW,225,0.4,0.7,86,0.00,,,0.00,WUHU216HW,2013-07-19 12:21:00,
2013-07-19 07:26:00,74.9,70.1,29.95,SW,225,0.0,0.7,85,0.00,,,0.00,WUHU216HW,2013-07-19 12:26:00,
2013-07-19 07:31:00,75.1,70.3,29.95,SW,225,0.7,1.1,85,0.00,,,0.00,WUHU216HW,2013-07-19 12:31:00,
2013-07-19 07:36:00,75.2,70.5,29.95,SSW,203,0.9,1.1,85,0.00,,,0.00,WUHU216HW,2013-07-19 12:36:00,
2013-07-19 07:41:00,75.4,70.7,29.95,SSW,203,1.6,1.6,85,0.00,,,0.00,WUHU216HW,2013-07-19 12:41:00,
2013-07-19 07:46:00,75.6,70.8,29.95,SSW,203,0.4,1.6,85,0.00,,,0.00,WUHU216HW,2013-07-19 12:46:00,
2013-07-19 07:51:00,76.0,71.2,29.95,SSW,203,0.0,0.7,85,0.00,,,0.00,WUHU216HW,2013-07-19 12:51:00,
2013-07-19 07:56:00,76.7,71.5,29.95,SW,225,1.1,1.6,84,0.00,,,0.00,WUHU216HW,2013-07-19 12:56:00,
2013-07-19 08:01:00,77.2,72.0,29.95,SSW,203,1.3,2.2,84,0.00,,,0.00,WUHU216HW,2013-07-19 13:01:00,
2013-07-19 08:06:00,77.6,71.6,29.95,WSW,248,1.1,2.5,82,0.00,,,0.00,WUHU216HW,2013-07-19 13:06:00,
2013-07-19 08:11:00,77.9,72.0,29.95,SW,225,1.1,2.5,82,0.00,,,0.00,WUHU216HW,2013-07-19 13:11:00,
2013-07-19 08:16:00,78.3,72.0,29.95,SSW,203,2.2,2.2,81,0.00,,,0.00,WUHU216HW,2013-07-19 13:16:00,
2013-07-19 08:21:00,78.8,72.2,29.95,SW,225,2.9,2.9,80,0.00,,,0.00,WUHU216HW,2013-07-19 13:21:00,
2013-07-19 08:26:00,79.2,72.5,29.95,SW,225,2.2,2.9,80,0.00,,,0.00,WUHU216HW,2013-07-19 13:26:00,
2013-07-19 08:31:00,79.7,72.7,29.95,WSW,248,2.5,2.5,79,0.00,,,0.00,WUHU216HW,2013-07-19 13:31:00,
2013-07-19 08:36:00,80.1,72.6,29.95,SW,225,1.6,2.5,78,0.00,,,0.00,WUHU216HW,2013-07-19 13:36:00,
2013-07-19 08:41:00,80.3,72.5,29.95,SSW,203,2.5,2.5,77,0.00,,,0.00,WUHU216HW,2013-07-19 13:41:00,
2013-07-19 08:46:00,80.6,72.8,29.95,SSW,203,2.0,2.5,77,0.00,,,0.00,WUHU216HW,2013-07-19 13:46:00,
2013-07-19 08:51:00,81.4,72.7,29.95,SW,225,1.8,2.0,75,0.00,,,0.00,WUHU216HW,2013-07-19 13:51:00,
2013-07-19 08:56:00,82.1,73.0,29.95,WSW,248,3.8,3.8,74,0.00,,,0.00,WUHU216HW,2013-07-19 13:56:00,
2013-07-19 09:01:00,82.4,72.5,29.95,SW,225,1.3,3.8,72,0.00,,,0.00,WUHU216HW,2013-07-19 14:01:00,
2013-07-19 09:06:00,82.8,72.5,29.95,SW,225,1.8,3.8,71,0.00,,,0.00,WUHU216HW,2013-07-19 14:06:00,
2013-07-19 09:11:00,83.2,71.9,29.96,SSW,203,2.2,5.8,69,0.00,,,0.00,WUHU216HW,2013-07-19 14:11:00,
2013-07-19 09:16:00,83.9,72.2,29.95,WSW,248,2.7,5.8,68,0.00,,,0.00,WUHU216HW,2013-07-19 14:16:00,
2013-07-19 09:21:00,84.1,72.4,29.95,SW,225,1.3,5.1,68,0.00,,,0.00,WUHU216HW,2013-07-19 14:21:00,
2013-07-19 09:26:00,84.6,72.5,29.95,WSW,248,1.3,5.1,67,0.00,,,0.00,WUHU216HW,2013-07-19 14:26:00,
2013-07-19 09:31:00,85.3,72.7,29.95,SSW,203,1.8,4.0,66,0.00,,,0.00,WUHU216HW,2013-07-19 14:31:00,
2013-07-19 09:36:00,85.7,72.5,29.95,SW,225,2.5,3.6,65,0.00,,,0.00,WUHU216HW,2013-07-19 14:36:00,
2013-07-19 09:41:00,85.9,71.8,29.95,SW,225,4.0,4.3,63,0.00,,,0.00,WUHU216HW,2013-07-19 14:41:00,
2013-07-19 09:46:00,85.9,72.3,29.95,WSW,248,1.8,5.6,64,0.00,,,0.00,WUHU216HW,2013-07-19 14:46:00,
2013-07-19 09:51:00,86.0,71.5,29.95,West,270,2.7,5.6,62,0.00,,,0.00,WUHU216HW,2013-07-19 14:51:00,
2013-07-19 09:56:00,86.0,72.0,29.95,SW,225,3.1,4.3,63,0.00,,,0.00,WUHU216HW,2013-07-19 14:56:00,
2013-07-19 10:01:00,85.7,71.7,29.96,SW,225,2.0,4.3,63,0.00,,,0.00,WUHU216HW,2013-07-19 15:01:00,
2013-07-19 10:06:00,85.7,71.2,29.96,WNW,293,3.1,4.7,62,0.00,,,0.00,WUHU216HW,2013-07-19 15:06:00,
2013-07-19 10:11:00,86.0,71.5,29.96,SW,225,1.3,4.7,62,0.00,,,0.00,WUHU216HW,2013-07-19 15:11:00,
2013-07-19 10:14:00,86.0,71.0,29.96,SSW,203,2.0,4.7,61,0.00,,,0.00,WUHU216HW,2013-07-19 15:14:00,
2013-07-19 10:15:00,86.0,71.0,29.96,WSW,248,2.7,4.7,61,0.00,,,0.00,WUHU216HW,2013-07-19 15:15:00,
2013-07-19 10:16:00,86.0,71.5,29.96,SW,225,0.9,4.3,62,0.00,,,0.00,WUHU216HW,2013-07-19 15:16:00,
2013-07-19 10:17:00,86.0,71.0,29.96,West,270,3.6,4.3,61,0.00,,,0.00,WUHU216HW,2013-07-19 15:17:00,
2013-07-19 10:18:00,86.0,71.0,29.96,WSW,248,1.1,4.3,61,0.00,,,0.00,WUHU216HW,2013-07-19 15:18:00,
2013-07-19 10:19:00,86.0,71.5,29.96,SW,225,1.8,4.3,62,0.00,,,0.00,WUHU216HW,2013-07-19 15:19:00,
2013-07-19 10:20:00,86.0,71.5,29.96,WSW,248,2.5,4.3,62,0.00,,,0.00,WUHU216HW,2013-07-19 15:20:00,
2013-07-19 10:21:00,86.0,71.5,29.96,SW,225,1.1,4.3,62,0.00,,,0.00,WUHU216HW,2013-07-19 15:21:00,
2013-07-19 10:22:00,86.0,71.5,29.96,WSW,248,2.0,4.3,62,0.00,,,0.00,WUHU216HW,2013-07-19 15:22:00,
2013-07-19 10:23:00,86.0,71.5,29.96,WSW,248,0.2,4.3,62,0.00,,,0.00,WUHU216HW,2013-07-19 15:23:00,
2013-07-19 10:24:00,85.9,70.8,29.96,West,270,1.1,3.6,61,0.00,,,0.00,WUHU216HW,2013-07-19 15:24:00,
2013-07-19 10:25:00,85.9,71.4,29.97,WSW,248,0.2,3.6,62,0.00,,,0.00,WUHU216HW,2013-07-19 15:25:00,
2013-07-19 10:26:00,85.7,71.7,29.97,NNW,338,0.4,3.6,63,0.00,,,0.00,WUHU216HW,2013-07-19 15:26:00,
2013-07-19 10:27:00,85.7,71.7,29.97,West,270,2.5,2.5,63,0.00,,,0.00,WUHU216HW,2013-07-19 15:27:00,
2013-07-19 10:28:00,85.7,71.7,29.97,SW,225,1.6,2.5,63,0.00,,,0.00,WUHU216HW,2013-07-19 15:28:00,
2013-07-19 10:29:00,85.5,71.5,29.97,West,270,0.9,2.5,63,0.00,,,0.00,WUHU216HW,2013-07-19 15:29:00,
2013-07-19 10:30:00,85.5,71.5,29.97,NW,315,2.0,2.5,63,0.00,,,0.00,WUHU216HW,2013-07-19 15:30:00,
2013-07-19 10:31:00,85.5,71.5,29.97,WNW,293,2.7,2.7,63,0.00,,,0.00,WUHU216HW,2013-07-19 15:31:00,
2013-07-19 10:32:00,85.3,71.3,29.97,SW,225,1.8,2.7,63,0.00,,,0.00,WUHU216HW,2013-07-19 15:32:00,
2013-07-19 10:33:00,85.3,71.3,29.97,SSW,203,2.7,2.7,63,0.00,,,0.00,WUHU216HW,2013-07-19 15:33:00,
2013-07-19 10:34:00,85.3,71.3,29.97,NNE,23,1.1,2.7,63,0.00,,,0.00,WUHU216HW,2013-07-19 15:34:00,
2013-07-19 10:35:00,85.1,71.6,29.97,NNW,338,0.2,2.7,64,0.00,,,0.00,WUHU216HW,2013-07-19 15:35:00,
2013-07-19 10:36:00,85.1,71.6,29.97,North,0,1.6,2.7,64,0.00,,,0.00,WUHU216HW,2013-07-19 15:36:00,
2013-07-19 10:37:00,85.1,72.0,29.97,NNW,338,0.7,2.7,65,0.00,,,0.00,WUHU216HW,2013-07-19 15:37:00,
2013-07-19 10:38:00,85.1,72.0,29.97,NNW,338,1.3,2.7,65,0.00,,,0.00,WUHU216HW,2013-07-19 15:38:00,
2013-07-19 10:39:00,85.1,72.0,29.97,North,0,1.1,2.7,65,0.00,,,0.00,WUHU216HW,2013-07-19 15:39:00,
2013-07-19 10:40:00,85.1,72.0,29.97,NNW,338,0.7,2.7,65,0.00,,,0.00,WUHU216HW,2013-07-19 15:40:00,
2013-07-19 10:41:00,85.1,72.0,29.97,North,0,1.1,2.7,65,0.00,,,0.00,WUHU216HW,2013-07-19 15:41:00,
2013-07-19 10:42:00,85.0,71.9,29.97,North,0,0.9,2.7,65,0.00,,,0.00,WUHU216HW,2013-07-19 15:42:00,
2013-07-19 10:43:00,85.0,71.9,29.98,NNE,23,1.1,1.6,65,0.00,,,0.00,WUHU216HW,2013-07-19 15:43:00,
2013-07-19 10:44:00,85.0,72.4,29.98,ENE,68,3.6,3.6,66,0.00,,,0.00,WUHU216HW,2013-07-19 15:44:00,
2013-07-19 10:45:00,84.8,72.6,29.98,ESE,113,0.7,3.6,67,0.00,,,0.00,WUHU216HW,2013-07-19 15:45:00,
2013-07-19 10:46:00,84.6,73.4,29.98,North,0,2.9,3.6,69,0.00,,,0.00,WUHU216HW,2013-07-19 15:46:00,
2013-07-19 10:47:00,84.1,73.3,29.98,ENE,68,3.4,3.6,70,0.00,,,0.00,WUHU216HW,2013-07-19 15:47:00,
2013-07-19 10:48:00,83.7,73.3,29.98,ENE,68,2.2,3.6,71,0.00,,,0.00,WUHU216HW,2013-07-19 15:48:00,
2013-07-19 10:49:00,83.3,73.4,29.98,NE,45,3.4,3.6,72,0.00,,,0.00,WUHU216HW,2013-07-19 15:49:00,
2013-07-19 10:50:00,83.0,73.0,29.98,NNE,23,2.7,3.6,72,0.00,,,0.00,WUHU216HW,2013-07-19 15:50:00,
2013-07-19 10:51:00,82.8,73.6,29.98,NE,45,4.7,4.7,74,0.00,,,0.00,WUHU216HW,2013-07-19 15:51:00,
2013-07-19 10:52:00,82.4,73.3,29.98,ENE,68,5.4,5.4,74,0.00,,,0.00,WUHU216HW,2013-07-19 15:52:00,
2013-07-19 10:53:00,81.9,72.8,29.98,ENE,68,4.7,5.4,74,0.00,,,0.00,WUHU216HW,2013-07-19 15:53:00,
2013-07-19 10:54:00,81.7,73.0,29.98,ENE,68,2.5,5.4,75,0.00,,,0.00,WUHU216HW,2013-07-19 15:54:00,
2013-07-19 10:55:00,81.2,72.6,29.98,ENE,68,2.5,5.4,75,0.00,,,0.00,WUHU216HW,2013-07-19 15:55:00,
2013-07-19 10:56:00,81.0,72.4,29.98,NE,45,3.4,5.4,75,0.00,,,0.00,WUHU216HW,2013-07-19 15:56:00,
2013-07-19 10:57:00,81.0,72.7,29.98,East,90,2.5,5.4,76,0.00,,,0.00,WUHU216HW,2013-07-19 15:57:00,
2013-07-19 10:58:00,80.6,72.8,29.98,ENE,68,3.8,5.4,77,0.00,,,0.00,WUHU216HW,2013-07-19 15:58:00,
2013-07-19 10:59:00,80.5,72.6,29.98,ENE,68,3.1,5.4,77,0.00,,,0.00,WUHU216HW,2013-07-19 15:59:00,
2013-07-19 11:00:00,80.3,72.8,29.98,ENE,68,2.9,5.4,78,0.00,,,0.00,WUHU216HW,2013-07-19 16:00:00,
2013-07-19 11:01:00,80.1,72.3,29.98,NNE,23,2.9,5.4,77,0.00,,,0.00,WUHU216HW,2013-07-19 16:01:00,
2013-07-19 11:02:00,79.9,72.5,29.98,ENE,68,2.5,5.4,78,0.00,,,0.00,WUHU216HW,2013-07-19 16:02:00,
2013-07-19 11:03:00,79.9,72.5,29.98,ENE,68,2.9,4.7,78,0.00,,,0.00,WUHU216HW,2013-07-19 16:03:00,
2013-07-19 11:04:00,79.7,72.3,29.98,ENE,68,3.6,3.8,78,0.00,,,0.00,WUHU216HW,2013-07-19 16:04:00,
2013-07-19 11:05:00,79.7,72.7,29.98,ENE,68,2.5,3.8,79,0.00,,,0.00,WUHU216HW,2013-07-19 16:05:00,
2013-07-19 11:06:00,79.6,72.6,29.98,ENE,68,3.8,3.8,79,0.00,,,0.00,WUHU216HW,2013-07-19 16:06:00,
2013-07-19 11:07:00,79.6,72.6,29.98,ENE,68,4.0,4.0,79,0.00,,,0.00,WUHU216HW,2013-07-19 16:07:00,
2013-07-19 11:08:00,79.4,72.7,29.98,East,90,4.0,4.0,80,0.00,,,0.00,WUHU216HW,2013-07-19 16:08:00,
2013-07-19 11:09:00,79.4,72.4,29.98,ENE,68,2.2,4.0,79,0.00,,,0.00,WUHU216HW,2013-07-19 16:09:00,
2013-07-19 11:10:00,79.2,72.5,29.98,East,90,4.0,4.0,80,0.00,,,0.00,WUHU216HW,2013-07-19 16:10:00,
2013-07-19 11:11:00,79.2,72.2,29.98,ENE,68,1.8,4.0,79,0.00,,,0.00,WUHU216HW,2013-07-19 16:11:00,
2013-07-19 11:12:00,79.2,72.5,29.98,ENE,68,3.4,4.0,80,0.00,,,0.00,WUHU216HW,2013-07-19 16:12:00,
2013-07-19 11:13:00,79.2,72.5,29.98,ENE,68,1.8,4.0,80,0.00,,,0.00,WUHU216HW,2013-07-19 16:13:00,
2013-07-19 11:14:00,79.2,72.5,29.98,NE,45,2.5,4.0,80,0.00,,,0.00,WUHU216HW,2013-07-19 16:14:00,
2013-07-19 11:15:00,79.2,72.5,29.98,ENE,68,2.5,4.0,80,0.00,,,0.00,WUHU216HW,2013-07-19 16:15:00,
2013-07-19 11:16:00,79.2,72.5,29.98,ENE,68,1.1,4.0,80,0.00,,,0.00,WUHU216HW,2013-07-19 16:16:00,
2013-07-19 11:17:00,79.4,72.7,29.98,ENE,68,1.8,4.0,80,0.00,,,0.00,WUHU216HW,2013-07-19 16:17:00,
2013-07-19 11:18:00,79.4,73.1,29.98,East,90,1.3,4.0,81,0.00,,,0.00,WUHU216HW,2013-07-19 16:18:00,
2013-07-19 11:19:00,79.4,72.7,29.98,East,90,2.2,4.0,80,0.00,,,0.00,WUHU216HW,2013-07-19 16:19:00,
2013-07-19 11:20:00,79.2,72.9,29.98,ENE,68,1.6,3.4,81,0.00,,,0.00,WUHU216HW,2013-07-19 16:20:00,
2013-07-19 11:21:00,79.4,73.1,29.98,ENE,68,1.3,3.4,81,0.00,,,0.00,WUHU216HW,2013-07-19 16:21:00,
2013-07-19 11:22:00,79.4,73.1,29.98,ENE,68,0.9,2.5,81,0.00,,,0.00,WUHU216HW,2013-07-19 16:22:00,
2013-07-19 11:23:00,79.4,73.1,29.98,ENE,68,2.0,2.5,81,0.00,,,0.00,WUHU216HW,2013-07-19 16:23:00,
2013-07-19 11:24:00,79.2,72.9,29.98,ENE,68,2.5,2.5,81,0.00,,,0.00,WUHU216HW,2013-07-19 16:24:00,
2013-07-19 11:25:00,79.4,73.1,29.98,ENE,68,0.9,2.5,81,0.00,,,0.00,WUHU216HW,2013-07-19 16:25:00,
2013-07-19 11:26:00,79.4,73.1,29.98,East,90,0.9,2.5,81,0.00,,,0.00,WUHU216HW,2013-07-19 16:26:00,
2013-07-19 11:27:00,79.2,72.9,29.98,ESE,113,4.0,4.0,81,0.00,,,0.00,WUHU216HW,2013-07-19 16:27:00,
2013-07-19 11:28:00,79.2,72.9,29.98,ENE,68,2.0,4.0,81,0.00,,,0.00,WUHU216HW,2013-07-19 16:28:00,
2013-07-19 11:29:00,79.0,72.7,29.98,NE,45,1.8,4.0,81,0.00,,,0.00,WUHU216HW,2013-07-19 16:29:00,
2013-07-19 11:30:00,79.0,73.1,29.98,East,90,1.3,4.0,82,0.00,,,0.00,WUHU216HW,2013-07-19 16:30:00,
2013-07-19 11:31:00,79.0,73.1,29.98,ENE,68,1.1,4.0,82,0.01,,,0.00,WUHU216HW,2013-07-19 16:31:00,
2013-07-19 11:32:00,78.8,72.9,29.98,East,90,2.5,4.0,82,0.01,,,0.01,WUHU216HW,2013-07-19 16:32:00,
2013-07-19 11:33:00,78.8,73.3,29.98,ENE,68,1.8,4.0,83,0.01,,,0.01,WUHU216HW,2013-07-19 16:33:00,
2013-07-19 11:34:00,78.7,73.1,29.98,East,90,1.6,4.0,83,0.01,,,0.01,WUHU216HW,2013-07-19 16:34:00,
2013-07-19 11:35:00,78.7,73.1,29.98,East,90,1.3,4.0,83,0.01,,,0.01,WUHU216HW,2013-07-19 16:35:00,
2013-07-19 11:36:00,78.7,73.4,29.98,ESE,113,0.4,4.0,84,0.01,,,0.01,WUHU216HW,2013-07-19 16:36:00,
2013-07-19 11:37:00,78.7,73.4,29.98,ESE,113,2.2,2.5,84,0.02,,,0.01,WUHU216HW,2013-07-19 16:37:00,
2013-07-19 11:38:00,78.7,73.4,29.98,SE,135,3.1,3.1,84,0.02,,,0.02,WUHU216HW,2013-07-19 16:38:00,
2013-07-19 11:39:00,78.7,73.4,29.97,East,90,1.6,3.1,84,0.02,,,0.02,WUHU216HW,2013-07-19 16:39:00,
2013-07-19 11:40:00,78.5,73.3,29.97,ESE,113,1.1,3.1,84,0.02,,,0.02,WUHU216HW,2013-07-19 16:40:00,
2013-07-19 11:41:00,78.5,73.3,29.97,ESE,113,2.2,3.1,84,0.02,,,0.02,WUHU216HW,2013-07-19 16:41:00,
2013-07-19 11:42:00,78.5,73.6,29.98,SE,135,2.2,3.1,85,0.02,,,0.02,WUHU216HW,2013-07-19 16:42:00,
2013-07-19 11:43:00,78.3,73.4,29.98,ESE,113,4.0,4.0,85,0.02,,,0.02,WUHU216HW,2013-07-19 16:43:00,
2013-07-19 11:44:00,78.3,73.1,29.98,East,90,1.8,4.0,84,0.02,,,0.02,WUHU216HW,2013-07-19 16:44:00,
2013-07-19 11:45:00,78.3,73.1,29.97,East,90,1.8,4.0,84,0.02,,,0.02,WUHU216HW,2013-07-19 16:45:00,
2013-07-19 11:46:00,78.3,73.4,29.98,East,90,1.8,4.0,85,0.02,,,0.02,WUHU216HW,2013-07-19 16:46:00,
2013-07-19 11:47:00,78.3,73.4,29.97,East,90,4.0,4.0,85,0.02,,,0.02,WUHU216HW,2013-07-19 16:47:00,
2013-07-19 11:48:00,78.1,73.3,29.97,ENE,68,2.5,4.0,85,0.02,,,0.02,WUHU216HW,2013-07-19 16:48:00,
2013-07-19 11:49:00,78.1,73.3,29.97,ESE,113,1.8,4.0,85,0.02,,,0.02,WUHU216HW,2013-07-19 16:49:00,
2013-07-19 11:50:00,78.1,73.3,29.98,ESE,113,3.4,4.0,85,0.02,,,0.02,WUHU216HW,2013-07-19 16:50:00,
2013-07-19 11:51:00,78.1,73.3,29.97,East,90,2.5,4.0,85,0.02,,,0.02,WUHU216HW,2013-07-19 16:51:00,
2013-07-19 11:52:00,77.9,73.1,29.97,East,90,3.4,4.0,85,0.02,,,0.02,WUHU216HW,2013-07-19 16:52:00,
2013-07-19 11:53:00,77.9,73.1,29.97,ESE,113,4.3,4.3,85,0.02,,,0.02,WUHU216HW,2013-07-19 16:53:00,
2013-07-19 11:54:00,77.9,73.1,29.97,ESE,113,4.0,4.3,85,0.02,,,0.02,WUHU216HW,2013-07-19 16:54:00,
2013-07-19 11:55:00,77.8,72.9,29.97,ESE,113,5.1,5.1,85,0.02,,,0.02,WUHU216HW,2013-07-19 16:55:00,
2013-07-19 11:56:00,77.8,72.5,29.97,ENE,68,2.2,5.1,84,0.02,,,0.02,WUHU216HW,2013-07-19 16:56:00,
2013-07-19 11:57:00,77.6,72.7,29.97,ESE,113,2.5,5.1,85,0.02,,,0.02,WUHU216HW,2013-07-19 16:57:00,
2013-07-19 11:58:00,77.6,72.7,29.97,East,90,1.1,5.1,85,0.02,,,0.02,WUHU216HW,2013-07-19 16:58:00,
2013-07-19 11:59:00,77.6,72.7,29.97,SE,135,3.6,5.1,85,0.02,,,0.02,WUHU216HW,2013-07-19 16:59:00,
2013-07-19 12:00:00,77.4,72.5,29.97,East,90,4.3,5.1,85,0.02,,,0.02,WUHU216HW,2013-07-19 17:00:00,
2013-07-19 12:01:00,77.4,72.5,29.97,ESE,113,5.1,5.1,85,0.02,,,0.02,WUHU216HW,2013-07-19 17:01:00,
2013-07-19 12:02:00,77.4,72.9,29.97,ESE,113,7.2,7.2,86,0.02,,,0.02,WUHU216HW,2013-07-19 17:02:00,
2013-07-19 12:03:00,77.4,72.9,29.97,SE,135,4.7,7.2,86,0.02,,,0.02,WUHU216HW,2013-07-19 17:03:00,
2013-07-19 12:04:00,77.4,73.3,29.96,East,90,2.9,7.2,87,0.02,,,0.02,WUHU216HW,2013-07-19 17:04:00,
2013-07-19 12:05:00,77.2,73.1,29.96,ESE,113,2.0,7.2,87,0.02,,,0.02,WUHU216HW,2013-07-19 17:05:00,
2013-07-19 12:06:00,77.4,73.3,29.96,ESE,113,6.9,7.2,87,0.02,,,0.02,WUHU216HW,2013-07-19 17:06:00,
2013-07-19 12:07:00,77.2,72.7,29.96,ESE,113,4.3,7.2,86,0.02,,,0.02,WUHU216HW,2013-07-19 17:07:00,
2013-07-19 12:08:00,77.2,73.1,29.96,East,90,2.7,7.2,87,0.02,,,0.02,WUHU216HW,2013-07-19 17:08:00,
2013-07-19 12:09:00,77.0,72.9,29.96,ESE,113,4.7,7.2,87,0.02,,,0.02,WUHU216HW,2013-07-19 17:09:00,
2013-07-19 12:10:00,77.0,72.9,29.96,ESE,113,2.2,7.2,87,0.04,,,0.02,WUHU216HW,2013-07-19 17:10:00,
2013-07-19 12:11:00,77.0,72.9,29.96,ESE,113,4.7,7.2,87,0.04,,,0.04,WUHU216HW,2013-07-19 17:11:00,
2013-07-19 12:12:00,77.0,73.3,29.96,SE,135,3.8,6.9,88,0.04,,,0.04,WUHU216HW,2013-07-19 17:12:00,
2013-07-19 12:13:00,77.0,72.9,29.96,ESE,113,6.0,6.9,87,0.04,,,0.04,WUHU216HW,2013-07-19 17:13:00,
2013-07-19 12:14:00,77.0,73.3,29.96,SE,135,2.7,6.9,88,0.04,,,0.04,WUHU216HW,2013-07-19 17:14:00,
2013-07-19 12:15:00,77.0,73.3,29.96,SE,135,2.7,6.9,88,0.04,,,0.04,WUHU216HW,2013-07-19 17:15:00,
2013-07-19 12:16:00,77.0,73.6,29.96,ENE,68,3.1,6.0,89,0.04,,,0.04,WUHU216HW,2013-07-19 17:16:00,
2013-07-19 12:17:00,77.0,72.9,29.96,East,90,3.4,6.0,87,0.04,,,0.04,WUHU216HW,2013-07-19 17:17:00,
2013-07-19 12:18:00,77.0,72.9,29.96,ESE,113,5.4,6.0,87,0.04,,,0.04,WUHU216HW,2013-07-19 17:18:00,
2013-07-19 12:19:00,77.0,73.3,29.96,SE,135,4.0,6.0,88,0.05,,,0.04,WUHU216HW,2013-07-19 17:19:00,
2013-07-19 12:20:00,77.0,72.9,29.96,SE,135,4.3,6.0,87,0.05,,,0.05,WUHU216HW,2013-07-19 17:20:00,
2013-07-19 12:21:00,77.0,72.9,29.96,ESE,113,4.7,6.0,87,0.05,,,0.05,WUHU216HW,2013-07-19 17:21:00,
2013-07-19 12:22:00,77.0,73.3,29.96,East,90,3.8,6.0,88,0.05,,,0.05,WUHU216HW,2013-07-19 17:22:00,
2013-07-19 12:23:00,77.0,73.3,29.96,ESE,113,3.1,5.4,88,0.05,,,0.05,WUHU216HW,2013-07-19 17:23:00,
2013-07-19 12:24:00,77.2,73.4,29.96,ESE,113,5.1,5.4,88,0.05,,,0.05,WUHU216HW,2013-07-19 17:24:00,
2013-07-19 12:25:00,77.2,73.4,29.96,ESE,113,3.4,5.4,88,0.05,,,0.05,WUHU216HW,2013-07-19 17:25:00,
2013-07-19 12:26:00,77.2,73.1,29.96,ESE,113,4.0,5.4,87,0.05,,,0.05,WUHU216HW,2013-07-19 17:26:00,
2013-07-19 12:27:00,77.2,73.4,29.96,ESE,113,4.7,5.4,88,0.05,,,0.05,WUHU216HW,2013-07-19 17:27:00,
2013-07-19 12:28:00,77.2,73.1,29.96,SE,135,5.1,5.1,87,0.04,,,0.05,WUHU216HW,2013-07-19 17:28:00,
2013-07-19 12:29:00,77.4,73.6,29.96,ESE,113,2.9,5.1,88,0.04,,,0.05,WUHU216HW,2013-07-19 17:29:00,
2013-07-19 12:30:00,77.4,73.6,29.96,ESE,113,3.6,5.1,88,0.04,,,0.05,WUHU216HW,2013-07-19 17:30:00,
2013-07-19 12:31:00,77.4,73.6,29.95,SE,135,4.0,5.1,88,0.04,,,0.05,WUHU216HW,2013-07-19 17:31:00,
2013-07-19 12:32:00,77.4,73.6,29.95,SE,135,3.1,5.1,88,0.04,,,0.05,WUHU216HW,2013-07-19 17:32:00,
2013-07-19 12:33:00,77.4,73.3,29.96,SE,135,4.5,5.1,87,0.04,,,0.05,WUHU216HW,2013-07-19 17:33:00,
2013-07-19 12:34:00,77.4,73.3,29.95,ESE,113,4.9,5.1,87,0.04,,,0.05,WUHU216HW,2013-07-19 17:34:00,
2013-07-19 12:35:00,77.4,73.3,29.95,SE,135,3.8,5.1,87,0.04,,,0.05,WUHU216HW,2013-07-19 17:35:00,
2013-07-19 12:36:00,77.4,73.3,29.95,ESE,113,4.7,5.1,87,0.03,,,0.05,WUHU216HW,2013-07-19 17:36:00,
2013-07-19 12:37:00,77.4,73.3,29.96,SE,135,4.0,5.1,87,0.03,,,0.05,WUHU216HW,2013-07-19 17:37:00,
2013-07-19 12:38:00,77.6,73.4,29.95,East,90,4.7,4.9,87,0.03,,,0.05,WUHU216HW,2013-07-19 17:38:00,
2013-07-19 12:39:00,77.6,73.4,29.95,ESE,113,2.9,4.9,87,0.03,,,0.05,WUHU216HW,2013-07-19 17:39:00,
2013-07-19 12:40:00,77.8,73.6,29.95,ESE,113,4.7,4.9,87,0.03,,,0.05,WUHU216HW,2013-07-19 17:40:00,
2013-07-19 12:41:00,77.8,73.6,29.95,ESE,113,4.7,4.9,87,0.03,,,0.05,WUHU216HW,2013-07-19 17:41:00,
2013-07-19 12:42:00,77.6,73.1,29.95,ENE,68,5.4,5.4,86,0.03,,,0.05,WUHU216HW,2013-07-19 17:42:00,
2013-07-19 12:43:00,77.6,73.1,29.95,ESE,113,5.6,5.6,86,0.03,,,0.05,WUHU216HW,2013-07-19 17:43:00,
2013-07-19 12:44:00,77.6,73.1,29.95,SE,135,4.9,5.6,86,0.03,,,0.05,WUHU216HW,2013-07-19 17:44:00,
2013-07-19 12:45:00,77.6,73.1,29.95,East,90,4.9,5.6,86,0.03,,,0.05,WUHU216HW,2013-07-19 17:45:00,
2013-07-19 12:46:00,77.6,73.4,29.95,SSE,158,5.4,5.6,87,0.03,,,0.05,WUHU216HW,2013-07-19 17:46:00,
2013-07-19 12:47:00,77.6,73.4,29.95,SE,135,3.8,5.6,87,0.03,,,0.05,WUHU216HW,2013-07-19 17:47:00,
2013-07-19 12:48:00,77.6,73.4,29.95,ESE,113,3.8,5.6,87,0.03,,,0.05,WUHU216HW,2013-07-19 17:48:00,
2013-07-19 12:49:00,77.6,73.4,29.95,SSE,158,4.0,5.6,87,0.03,,,0.05,WUHU216HW,2013-07-19 17:49:00,
2013-07-19 12:50:00,77.6,73.4,29.95,ESE,113,4.9,5.6,87,0.03,,,0.05,WUHU216HW,2013-07-19 17:50:00,
2013-07-19 12:51:00,77.8,73.6,29.95,ESE,113,2.7,5.6,87,0.03,,,0.05,WUHU216HW,2013-07-19 17:51:00,
2013-07-19 12:52:00,77.8,73.6,29.95,SE,135,3.4,5.6,87,0.03,,,0.05,WUHU216HW,2013-07-19 17:52:00,
2013-07-19 12:53:00,77.6,72.7,29.95,SE,135,5.4,5.4,85,0.03,,,0.05,WUHU216HW,2013-07-19 17:53:00,
2013-07-19 12:54:00,77.8,73.3,29.95,ESE,113,4.0,5.4,86,0.03,,,0.05,WUHU216HW,2013-07-19 17:54:00,
2013-07-19 12:55:00,77.6,73.1,29.95,ESE,113,4.0,5.4,86,0.03,,,0.05,WUHU216HW,2013-07-19 17:55:00,
2013-07-19 12:56:00,77.8,73.3,29.95,SE,135,3.1,5.4,86,0.03,,,0.05,WUHU216HW,2013-07-19 17:56:00,
2013-07-19 12:57:00,77.8,72.9,29.95,SE,135,3.4,5.4,85,0.03,,,0.05,WUHU216HW,2013-07-19 17:57:00,
2013-07-19 12:58:00,77.8,72.9,29.95,SE,135,3.6,5.4,85,0.03,,,0.05,WUHU216HW,2013-07-19 17:58:00,
2013-07-19 12:59:00,77.6,72.7,29.95,SE,135,3.4,5.4,85,0.03,,,0.05,WUHU216HW,2013-07-19 17:59:00,
2013-07-19 13:00:00,77.8,72.9,29.95,ESE,113,1.8,5.4,85,0.03,,,0.05,WUHU216HW,2013-07-19 18:00:00,
2013-07-19 13:01:00,77.8,72.9,29.95,ESE,113,5.4,5.4,85,0.03,,,0.05,WUHU216HW,2013-07-19 18:01:00,
2013-07-19 13:02:00,77.8,73.3,29.95,SE,135,3.4,5.4,86,0.03,,,0.05,WUHU216HW,2013-07-19 18:02:00,
2013-07-19 13:03:00,77.8,73.3,29.95,ESE,113,2.9,5.4,86,0.03,,,0.05,WUHU216HW,2013-07-19 18:03:00,
2013-07-19 13:04:00,77.9,73.8,29.95,SE,135,3.1,5.4,87,0.03,,,0.05,WUHU216HW,2013-07-19 18:04:00,
2013-07-19 13:05:00,77.9,73.4,29.95,SE,135,3.1,5.4,86,0.03,,,0.05,WUHU216HW,2013-07-19 18:05:00,
2013-07-19 13:06:00,77.9,73.1,29.95,SE,135,3.6,5.4,85,0.03,,,0.05,WUHU216HW,2013-07-19 18:06:00,
2013-07-19 13:07:00,78.1,73.3,29.95,SE,135,1.8,5.4,85,0.03,,,0.05,WUHU216HW,2013-07-19 18:07:00,
2013-07-19 13:08:00,78.1,73.3,29.95,ESE,113,1.6,5.4,85,0.01,,,0.05,WUHU216HW,2013-07-19 18:08:00,
2013-07-19 13:09:00,78.1,73.3,29.94,SE,135,1.6,5.4,85,0.01,,,0.05,WUHU216HW,2013-07-19 18:09:00,
2013-07-19 13:10:00,77.9,73.1,29.95,SE,135,2.0,5.4,85,0.01,,,0.05,WUHU216HW,2013-07-19 18:10:00,
2013-07-19 13:11:00,78.1,73.3,29.95,SE,135,4.0,4.0,85,0.01,,,0.05,WUHU216HW,2013-07-19 18:11:00,
2013-07-19 13:12:00,78.1,73.3,29.94,SE,135,4.3,4.3,85,0.01,,,0.05,WUHU216HW,2013-07-19 18:12:00,
2013-07-19 13:13:00,78.1,73.3,29.95,SE,135,3.8,4.3,85,0.01,,,0.05,WUHU216HW,2013-07-19 18:13:00,
2013-07-19 13:14:00,78.1,73.3,29.95,ESE,113,3.4,4.3,85,0.01,,,0.05,WUHU216HW,2013-07-19 18:14:00,
2013-07-19 13:15:00,78.1,73.3,29.95,SE,135,2.5,4.3,85,0.01,,,0.05,WUHU216HW,2013-07-19 18:15:00,
2013-07-19 13:16:00,78.1,73.6,29.95,ESE,113,2.5,4.3,86,0.00,,,0.05,WUHU216HW,2013-07-19 18:16:00,
2013-07-19 13:17:00,78.1,73.3,29.95,ESE,113,4.3,4.3,85,0.00,,,0.05,WUHU216HW,2013-07-19 18:17:00,
2013-07-19 13:18:00,78.3,73.4,29.95,ESE,113,3.4,4.3,85,0.00,,,0.05,WUHU216HW,2013-07-19 18:18:00,
2013-07-19 13:19:00,78.3,73.4,29.95,ESE,113,4.3,4.3,85,0.00,,,0.05,WUHU216HW,2013-07-19 18:19:00,
2013-07-19 13:20:00,78.3,73.1,29.95,ESE,113,3.4,4.3,84,0.00,,,0.05,WUHU216HW,2013-07-19 18:20:00,
2013-07-19 13:21:00,78.3,73.4,29.95,ESE,113,4.3,4.3,85,0.00,,,0.05,WUHU216HW,2013-07-19 18:21:00,
2013-07-19 13:22:00,78.5,73.6,29.95,ESE,113,4.7,4.7,85,0.00,,,0.05,WUHU216HW,2013-07-19 18:22:00,
2013-07-19 13:23:00,78.5,73.6,29.95,ESE,113,3.4,4.7,85,0.00,,,0.05,WUHU216HW,2013-07-19 18:23:00,
2013-07-19 13:24:00,78.5,73.6,29.95,ESE,113,3.8,4.7,85,0.00,,,0.05,WUHU216HW,2013-07-19 18:24:00,
2013-07-19 13:25:00,78.5,73.6,29.95,South,180,1.8,4.7,85,0.00,,,0.05,WUHU216HW,2013-07-19 18:25:00,
2013-07-19 13:26:00,78.7,73.1,29.95,SE,135,2.9,4.7,83,0.00,,,0.05,WUHU216HW,2013-07-19 18:26:00,
2013-07-19 13:27:00,78.7,73.1,29.95,SSW,203,2.9,4.7,83,0.00,,,0.05,WUHU216HW,2013-07-19 18:27:00,
2013-07-19 13:28:00,78.7,72.7,29.95,South,180,1.6,4.7,82,0.00,,,0.05,WUHU216HW,2013-07-19 18:28:00,
2013-07-19 13:29:00,78.7,73.1,29.95,ESE,113,4.7,4.7,83,0.00,,,0.05,WUHU216HW,2013-07-19 18:29:00,
2013-07-19 13:30:00,78.7,73.1,29.94,SE,135,4.7,4.7,83,0.00,,,0.05,WUHU216HW,2013-07-19 18:30:00,
2013-07-19 13:31:00,78.7,72.7,29.94,SE,135,4.5,4.7,82,0.00,,,0.05,WUHU216HW,2013-07-19 18:31:00,
2013-07-19 13:36:00,78.7,72.7,29.94,ESE,113,4.9,6.3,82,0.00,,,0.05,WUHU216HW,2013-07-19 18:36:00,
2013-07-19 13:41:00,78.8,73.3,29.94,East,90,4.3,6.3,83,0.00,,,0.05,WUHU216HW,2013-07-19 18:41:00,
2013-07-19 13:47:00,79.2,73.6,29.94,SE,135,5.6,5.8,83,0.00,,,0.05,WUHU216HW,2013-07-19 18:47:00,
2013-07-19 13:52:00,79.6,73.6,29.94,ESE,113,5.8,6.5,82,0.00,,,0.05,WUHU216HW,2013-07-19 18:52:00,
2013-07-19 13:57:00,80.5,74.2,29.93,SE,135,4.7,6.5,81,0.00,,,0.05,WUHU216HW,2013-07-19 18:57:00,
2013-07-19 14:01:00,80.8,73.8,29.93,ESE,113,4.0,4.7,79,0.00,,,0.05,WUHU216HW,2013-07-19 19:01:00,
2013-07-19 14:06:00,81.2,73.7,29.93,ESE,113,5.4,6.0,78,0.00,,,0.05,WUHU216HW,2013-07-19 19:06:00,
2013-07-19 14:11:00,81.7,74.6,29.93,SE,135,6.5,7.2,79,0.00,,,0.05,WUHU216HW,2013-07-19 19:11:00,
2013-07-19 14:16:00,82.1,75.4,29.93,SSE,158,4.3,7.2,80,0.00,,,0.05,WUHU216HW,2013-07-19 19:16:00,
2013-07-19 14:22:00,82.8,74.4,29.93,SW,225,2.0,6.3,76,0.00,,,0.05,WUHU216HW,2013-07-19 19:22:00,
2013-07-19 14:27:00,82.4,74.2,29.93,SE,135,4.0,5.4,76,0.00,,,0.05,WUHU216HW,2013-07-19 19:27:00,
2013-07-19 14:32:00,82.3,74.3,29.93,SSE,158,1.1,5.4,77,0.00,,,0.05,WUHU216HW,2013-07-19 19:32:00,
2013-07-19 14:37:00,82.8,75.2,29.93,South,180,3.6,5.4,78,0.00,,,0.05,WUHU216HW,2013-07-19 19:37:00,
2013-07-19 14:42:00,83.5,75.2,29.92,ESE,113,5.1,7.8,76,0.00,,,0.05,WUHU216HW,2013-07-19 19:42:00,
2013-07-19 14:47:00,84.2,75.8,29.92,SSW,203,3.1,7.8,76,0.00,,,0.05,WUHU216HW,2013-07-19 19:47:00,
2013-07-19 14:52:00,84.2,75.4,29.92,South,180,4.9,8.1,75,0.00,,,0.05,WUHU216HW,2013-07-19 19:52:00,
2013-07-19 14:57:00,84.2,75.1,29.91,South,180,2.0,8.1,74,0.00,,,0.05,WUHU216HW,2013-07-19 19:57:00,
2013-07-19 15:02:00,84.6,74.6,29.91,SSE,158,4.0,6.9,72,0.00,,,0.05,WUHU216HW,2013-07-19 20:02:00,
2013-07-19 15:07:00,84.6,75.0,29.91,SE,135,4.3,6.3,73,0.00,,,0.05,WUHU216HW,2013-07-19 20:07:00,
2013-07-19 15:12:00,85.3,75.7,29.91,SE,135,3.1,8.3,73,0.00,,,0.05,WUHU216HW,2013-07-19 20:12:00,
2013-07-19 15:17:00,85.7,74.4,29.91,South,180,3.4,8.3,69,0.00,,,0.05,WUHU216HW,2013-07-19 20:17:00,
2013-07-19 15:22:00,85.7,74.0,29.91,ESE,113,6.0,7.4,68,0.00,,,0.05,WUHU216HW,2013-07-19 20:22:00,
2013-07-19 15:27:00,85.0,73.7,29.91,South,180,3.6,7.4,69,0.00,,,0.05,WUHU216HW,2013-07-19 20:27:00,
2013-07-19 15:32:00,85.7,74.9,29.90,SE,135,6.3,6.7,70,0.00,,,0.05,WUHU216HW,2013-07-19 20:32:00,
2013-07-19 15:37:00,86.4,74.6,29.90,SE,135,7.6,7.6,68,0.00,,,0.05,WUHU216HW,2013-07-19 20:37:00,
2013-07-19 15:42:00,86.8,75.0,29.90,SE,135,8.5,8.5,68,0.00,,,0.05,WUHU216HW,2013-07-19 20:42:00,
2013-07-19 15:47:00,86.0,74.8,29.90,SE,135,1.8,8.5,69,0.00,,,0.05,WUHU216HW,2013-07-19 20:47:00,
2013-07-19 15:52:00,85.9,75.1,29.90,ESE,113,3.8,7.4,70,0.00,,,0.05,WUHU216HW,2013-07-19 20:52:00,
2013-07-19 15:57:00,86.0,74.8,29.90,ESE,113,2.5,6.3,69,0.00,,,0.05,WUHU216HW,2013-07-19 20:57:00,
2013-07-19 16:02:00,85.9,75.1,29.91,SE,135,1.3,4.7,70,0.00,,,0.05,WUHU216HW,2013-07-19 21:02:00,
2013-07-19 16:07:00,86.0,74.4,29.90,SW,225,3.1,3.1,68,0.00,,,0.05,WUHU216HW,2013-07-19 21:07:00,
2013-07-19 16:12:00,86.2,74.0,29.90,SSE,158,2.7,3.1,67,0.00,,,0.05,WUHU216HW,2013-07-19 21:12:00,
2013-07-19 16:17:00,86.0,73.8,29.89,East,90,4.3,4.7,67,0.00,,,0.05,WUHU216HW,2013-07-19 21:17:00,
2013-07-19 16:22:00,86.4,73.3,29.89,ESE,113,2.7,4.7,65,0.00,,,0.05,WUHU216HW,2013-07-19 21:22:00,
2013-07-19 16:27:00,86.4,74.2,29.89,SSE,158,0.9,4.5,67,0.00,,,0.05,WUHU216HW,2013-07-19 21:27:00,
2013-07-19 16:32:00,86.4,73.7,29.89,SSW,203,1.1,2.5,66,0.00,,,0.05,WUHU216HW,2013-07-19 21:32:00,
2013-07-19 16:37:00,85.9,73.6,29.89,SSW,203,0.0,2.2,67,0.00,,,0.05,WUHU216HW,2013-07-19 21:37:00,
2013-07-19 16:42:00,85.3,73.2,29.88,SE,135,1.1,2.2,67,0.00,,,0.05,WUHU216HW,2013-07-19 21:42:00,
2013-07-19 16:47:00,84.6,73.8,29.88,SE,135,4.3,4.3,70,0.00,,,0.05,WUHU216HW,2013-07-19 21:47:00,
2013-07-19 16:52:00,84.1,74.1,29.88,SE,135,2.7,4.3,72,0.00,,,0.05,WUHU216HW,2013-07-19 21:52:00,
2013-07-19 16:57:00,83.7,73.7,29.88,SE,135,1.8,4.7,72,0.00,,,0.05,WUHU216HW,2013-07-19 21:57:00,
2013-07-19 17:02:00,83.5,73.5,29.88,ESE,113,5.4,5.4,72,0.00,,,0.05,WUHU216HW,2013-07-19 22:02:00,
2013-07-19 17:07:00,83.3,73.8,29.87,ESE,113,3.6,5.4,73,0.00,,,0.05,WUHU216HW,2013-07-19 22:07:00,
2013-07-19 17:12:00,83.3,73.4,29.87,SE,135,4.3,4.3,72,0.00,,,0.05,WUHU216HW,2013-07-19 22:12:00,
2013-07-19 17:17:00,83.2,73.2,29.87,South,180,0.7,4.3,72,0.00,,,0.05,WUHU216HW,2013-07-19 22:17:00,
2013-07-19 17:22:00,83.2,73.2,29.86,SE,135,0.4,1.8,72,0.00,,,0.05,WUHU216HW,2013-07-19 22:22:00,
2013-07-19 17:27:00,83.0,73.0,29.86,SE,135,2.5,2.5,72,0.00,,,0.05,WUHU216HW,2013-07-19 22:27:00,
2013-07-19 17:32:00,83.0,73.5,29.86,ESE,113,0.7,2.5,73,0.00,,,0.05,WUHU216HW,2013-07-19 22:32:00,
2013-07-19 17:37:00,83.0,73.8,29.86,East,90,1.6,1.6,74,0.00,,,0.05,WUHU216HW,2013-07-19 22:37:00,
2013-07-19 17:42:00,83.0,73.0,29.86,SE,135,2.0,2.5,72,0.00,,,0.05,WUHU216HW,2013-07-19 22:42:00,
2013-07-19 17:47:00,82.8,73.6,29.86,ESE,113,2.0,2.5,74,0.00,,,0.05,WUHU216HW,2013-07-19 22:47:00,
2013-07-19 17:52:00,82.6,73.1,29.85,SE,135,2.5,3.4,73,0.00,,,0.05,WUHU216HW,2013-07-19 22:52:00,
2013-07-19 17:57:00,82.8,73.6,29.85,ESE,113,0.0,3.4,74,0.00,,,0.05,WUHU216HW,2013-07-19 22:57:00,
2013-07-19 18:02:00,82.8,72.8,29.85,ESE,113,2.5,2.7,72,0.00,,,0.05,WUHU216HW,2013-07-19 23:02:00,
2013-07-19 18:07:00,82.8,73.3,29.86,ESE,113,1.6,2.5,73,0.00,,,0.05,WUHU216HW,2013-07-19 23:07:00,
2013-07-19 18:12:00,82.8,72.8,29.85,ESE,113,0.4,2.0,72,0.00,,,0.05,WUHU216HW,2013-07-19 23:12:00,
2013-07-19 18:17:00,82.8,72.8,29.86,ESE,113,0.4,1.8,72,0.00,,,0.05,WUHU216HW,2013-07-19 23:17:00,
2013-07-19 18:22:00,82.8,72.8,29.86,ESE,113,0.4,1.8,72,0.00,,,0.05,WUHU216HW,2013-07-19 23:22:00,
2013-07-19 18:27:00,82.8,72.8,29.87,ESE,113,0.0,1.3,72,0.00,,,0.05,WUHU216HW,2013-07-19 23:27:00,
2013-07-19 18:32:00,83.0,73.0,29.87,ESE,113,0.0,0.4,72,0.00,,,0.05,WUHU216HW,2013-07-19 23:32:00,
2013-07-19 18:37:00,83.3,73.4,29.87,North,0,0.0,0.4,72,0.00,,,0.05,WUHU216HW,2013-07-19 23:37:00,
2013-07-19 18:42:00,83.3,73.4,29.87,East,90,0.0,0.4,72,0.00,,,0.05,WUHU216HW,2013-07-19 23:42:00,
2013-07-19 18:47:00,83.2,73.6,29.87,ESE,113,1.1,1.6,73,0.00,,,0.05,WUHU216HW,2013-07-19 23:47:00,
2013-07-19 18:52:00,82.8,74.1,29.87,ESE,113,1.8,2.9,75,0.00,,,0.05,WUHU216HW,2013-07-19 23:52:00,
2013-07-19 18:57:00,82.6,73.9,29.87,East,90,0.0,2.9,75,0.00,,,0.05,WUHU216HW,2013-07-19 23:57:00,
2013-07-19 19:02:00,82.4,73.7,29.87,ESE,113,0.0,1.6,75,0.00,,,0.05,WUHU216HW,2013-07-20 00:02:00,
2013-07-19 19:07:00,82.3,74.0,29.87,ESE,113,0.0,1.6,76,0.00,,,0.05,WUHU216HW,2013-07-20 00:07:00,
2013-07-19 19:12:00,82.1,73.8,29.87,ESE,113,2.0,2.0,76,0.00,,,0.05,WUHU216HW,2013-07-20 00:12:00,
2013-07-19 19:17:00,82.1,73.8,29.87,ESE,113,1.8,2.9,76,0.00,,,0.05,WUHU216HW,2013-07-20 00:17:00,
2013-07-19 19:22:00,81.9,73.6,29.87,ESE,113,1.1,2.9,76,0.00,,,0.05,WUHU216HW,2013-07-20 00:22:00,
2013-07-19 19:27:00,81.7,73.8,29.87,ESE,113,3.1,3.1,77,0.00,,,0.05,WUHU216HW,2013-07-20 00:27:00,
2013-07-19 19:32:00,81.5,73.7,29.87,ESE,113,1.8,3.1,77,0.00,,,0.05,WUHU216HW,2013-07-20 00:32:00,
2013-07-19 19:37:00,81.4,73.5,29.86,ESE,113,2.5,3.1,77,0.00,,,0.05,WUHU216HW,2013-07-20 00:37:00,
2013-07-19 19:42:00,81.0,73.2,29.87,ESE,113,3.1,3.1,77,0.00,,,0.05,WUHU216HW,2013-07-20 00:42:00,
2013-07-19 19:47:00,81.0,73.2,29.87,East,90,2.5,3.4,77,0.00,,,0.05,WUHU216HW,2013-07-20 00:47:00,
2013-07-19 19:52:00,80.8,73.4,29.87,ESE,113,1.8,3.4,78,0.00,,,0.05,WUHU216HW,2013-07-20 00:52:00,
2013-07-19 19:57:00,80.6,73.6,29.87,ESE,113,1.8,3.1,79,0.00,,,0.05,WUHU216HW,2013-07-20 00:57:00,
2013-07-19 20:02:00,80.5,73.5,29.86,ENE,68,1.3,3.4,79,0.00,,,0.05,WUHU216HW,2013-07-20 01:02:00,
2013-07-19 20:07:00,80.5,73.5,29.87,SE,135,2.2,3.4,79,0.00,,,0.05,WUHU216HW,2013-07-20 01:07:00,
2013-07-19 20:12:00,80.3,73.6,29.87,ESE,113,1.6,2.5,80,0.00,,,0.05,WUHU216HW,2013-07-20 01:12:00,
2013-07-19 20:17:00,80.3,73.6,29.87,SE,135,2.5,2.5,80,0.00,,,0.05,WUHU216HW,2013-07-20 01:17:00,
2013-07-19 20:22:00,80.1,73.4,29.87,ESE,113,2.0,2.9,80,0.00,,,0.05,WUHU216HW,2013-07-20 01:22:00,
2013-07-19 20:27:00,79.9,73.3,29.86,ESE,113,2.0,3.4,80,0.00,,,0.05,WUHU216HW,2013-07-20 01:27:00,
2013-07-19 20:32:00,79.7,73.5,29.87,SE,135,2.5,3.4,81,0.00,,,0.05,WUHU216HW,2013-07-20 01:32:00,
2013-07-19 20:37:00,79.6,73.3,29.87,ESE,113,2.5,2.5,81,0.00,,,0.05,WUHU216HW,2013-07-20 01:37:00,
2013-07-19 20:42:00,79.2,72.5,29.87,East,90,3.4,3.8,80,0.00,,,0.05,WUHU216HW,2013-07-20 01:42:00,
2013-07-19 20:47:00,79.0,72.4,29.87,ESE,113,3.4,3.8,80,0.00,,,0.05,WUHU216HW,2013-07-20 01:47:00,
2013-07-19 20:52:00,78.8,72.5,29.87,South,180,2.9,3.8,81,0.00,,,0.05,WUHU216HW,2013-07-20 01:52:00,
2013-07-19 20:57:00,78.7,72.4,29.87,ESE,113,2.9,2.9,81,0.00,,,0.05,WUHU216HW,2013-07-20 01:57:00,
2013-07-19 21:03:00,78.5,72.5,29.86,SE,135,1.8,3.8,82,0.00,,,0.05,WUHU216HW,2013-07-20 02:03:00,
2013-07-19 21:08:00,78.3,72.0,29.86,SE,135,0.7,3.8,81,0.00,,,0.05,WUHU216HW,2013-07-20 02:08:00,
2013-07-19 21:09:00,78.3,72.0,29.86,SE,135,1.1,3.8,81,0.00,,,0.05,WUHU216HW,2013-07-20 02:09:00,
2013-07-19 21:10:00,78.3,72.0,29.86,SE,135,0.9,3.8,81,0.00,,,0.05,WUHU216HW,2013-07-20 02:10:00,
2013-07-19 21:11:00,78.1,71.8,29.87,SE,135,1.6,3.8,81,0.00,,,0.05,WUHU216HW,2013-07-20 02:11:00,
2013-07-19 21:12:00,78.1,71.8,29.86,SE,135,1.1,1.8,81,0.00,,,0.05,WUHU216HW,2013-07-20 02:12:00,
2013-07-19 21:13:00,78.1,71.8,29.86,SE,135,0.4,1.8,81,0.00,,,0.05,WUHU216HW,2013-07-20 02:13:00,
2013-07-19 21:14:00,78.1,71.8,29.87,ESE,113,0.7,1.8,81,0.00,,,0.05,WUHU216HW,2013-07-20 02:14:00,
2013-07-19 21:15:00,78.1,71.8,29.87,SE,135,0.9,1.6,81,0.00,,,0.05,WUHU216HW,2013-07-20 02:15:00,
2013-07-19 21:16:00,78.1,71.8,29.86,SE,135,0.0,1.6,81,0.00,,,0.05,WUHU216HW,2013-07-20 02:16:00,
2013-07-19 21:17:00,78.1,71.8,29.87,SE,135,1.1,1.6,81,0.00,,,0.05,WUHU216HW,2013-07-20 02:17:00,
2013-07-19 21:18:00,77.9,71.6,29.87,ESE,113,0.7,1.6,81,0.00,,,0.05,WUHU216HW,2013-07-20 02:18:00,
2013-07-19 21:19:00,77.9,71.6,29.86,SE,135,1.8,1.8,81,0.00,,,0.05,WUHU216HW,2013-07-20 02:19:00,
2013-07-19 21:20:00,77.9,71.6,29.87,ESE,113,1.8,1.8,81,0.00,,,0.05,WUHU216HW,2013-07-20 02:20:00,
2013-07-19 21:21:00,77.9,71.6,29.87,ESE,113,2.5,2.5,81,0.00,,,0.05,WUHU216HW,2013-07-20 02:21:00,
2013-07-19 21:22:00,77.8,71.5,29.87,SE,135,1.8,2.5,81,0.00,,,0.05,WUHU216HW,2013-07-20 02:22:00,
2013-07-19 21:23:00,77.8,71.5,29.87,SE,135,1.8,2.5,81,0.00,,,0.05,WUHU216HW,2013-07-20 02:23:00,
2013-07-19 21:24:00,77.8,71.5,29.87,SE,135,0.9,2.5,81,0.00,,,0.05,WUHU216HW,2013-07-20 02:24:00,
2013-07-19 21:25:00,77.8,71.5,29.87,SE,135,0.7,2.5,81,0.00,,,0.05,WUHU216HW,2013-07-20 02:25:00,
2013-07-19 21:26:00,77.8,71.5,29.87,SE,135,1.1,2.5,81,0.00,,,0.05,WUHU216HW,2013-07-20 02:26:00,
2013-07-19 21:27:00,77.8,71.5,29.87,SE,135,0.4,2.5,81,0.00,,,0.05,WUHU216HW,2013-07-20 02:27:00,
2013-07-19 21:28:00,77.8,71.5,29.87,SE,135,0.4,2.5,81,0.00,,,0.05,WUHU216HW,2013-07-20 02:28:00,
2013-07-19 21:29:00,77.8,71.5,29.87,SE,135,0.0,2.5,81,0.00,,,0.05,WUHU216HW,2013-07-20 02:29:00,
2013-07-19 21:30:00,77.8,71.5,29.87,SE,135,0.0,2.5,81,0.00,,,0.05,WUHU216HW,2013-07-20 02:30:00,
2013-07-19 21:31:00,77.6,71.3,29.87,SE,135,0.0,1.8,81,0.00,,,0.05,WUHU216HW,2013-07-20 02:31:00,
2013-07-19 21:32:00,77.6,71.3,29.87,SE,135,0.4,1.8,81,0.00,,,0.05,WUHU216HW,2013-07-20 02:32:00,
2013-07-19 21:33:00,77.6,71.3,29.87,SE,135,0.0,1.1,81,0.00,,,0.05,WUHU216HW,2013-07-20 02:33:00,
2013-07-19 21:34:00,77.6,71.3,29.87,SE,135,0.0,1.1,81,0.00,,,0.05,WUHU216HW,2013-07-20 02:34:00,
2013-07-19 21:35:00,77.6,71.3,29.87,SE,135,0.0,1.1,81,0.00,,,0.05,WUHU216HW,2013-07-20 02:35:00,
2013-07-19 21:36:00,77.6,71.3,29.87,ESE,113,0.7,0.7,81,0.00,,,0.05,WUHU216HW,2013-07-20 02:36:00,
2013-07-19 21:37:00,77.6,71.3,29.87,SE,135,0.4,0.7,81,0.00,,,0.05,WUHU216HW,2013-07-20 02:37:00,
2013-07-19 21:38:00,77.4,71.1,29.87,SE,135,0.7,0.7,81,0.00,,,0.05,WUHU216HW,2013-07-20 02:38:00,
2013-07-19 21:39:00,77.4,71.1,29.87,SE,135,0.4,0.7,81,0.00,,,0.05,WUHU216HW,2013-07-20 02:39:00,
2013-07-19 21:40:00,77.4,71.1,29.87,SE,135,0.4,0.7,81,0.00,,,0.05,WUHU216HW,2013-07-20 02:40:00,
2013-07-19 21:41:00,77.4,71.5,29.87,SE,135,0.9,0.9,82,0.00,,,0.05,WUHU216HW,2013-07-20 02:41:00,
2013-07-19 21:42:00,77.4,71.5,29.87,SE,135,0.2,0.9,82,0.00,,,0.05,WUHU216HW,2013-07-20 02:42:00,
2013-07-19 21:43:00,77.4,71.5,29.87,SE,135,0.0,0.9,82,0.00,,,0.05,WUHU216HW,2013-07-20 02:43:00,
2013-07-19 21:44:00,77.4,71.5,29.87,SE,135,0.0,0.9,82,0.00,,,0.05,WUHU216HW,2013-07-20 02:44:00,
2013-07-19 21:45:00,77.4,71.5,29.87,South,180,0.0,0.9,82,0.00,,,0.05,WUHU216HW,2013-07-20 02:45:00,
2013-07-19 21:46:00,77.4,71.5,29.87,South,180,0.0,0.9,82,0.00,,,0.05,WUHU216HW,2013-07-20 02:46:00,
2013-07-19 21:47:00,77.4,71.5,29.87,South,180,0.0,0.9,82,0.00,,,0.05,WUHU216HW,2013-07-20 02:47:00,
2013-07-19 21:48:00,77.2,70.9,29.87,South,180,0.0,0.9,81,0.00,,,0.05,WUHU216HW,2013-07-20 02:48:00,
2013-07-19 21:49:00,77.2,71.3,29.87,South,180,0.0,0.9,82,0.00,,,0.05,WUHU216HW,2013-07-20 02:49:00,
2013-07-19 21:50:00,77.2,71.3,29.87,South,180,0.0,0.9,82,0.00,,,0.05,WUHU216HW,2013-07-20 02:50:00,
2013-07-19 21:51:00,77.2,71.3,29.87,South,180,0.0,0.2,82,0.00,,,0.05,WUHU216HW,2013-07-20 02:51:00,
2013-07-19 21:52:00,77.0,71.1,29.87,South,180,0.0,0.0,82,0.00,,,0.05,WUHU216HW,2013-07-20 02:52:00,
2013-07-19 21:53:00,77.0,71.1,29.87,South,180,0.0,0.0,82,0.00,,,0.05,WUHU216HW,2013-07-20 02:53:00,
2013-07-19 21:54:00,77.0,71.1,29.87,South,180,0.0,0.0,82,0.00,,,0.05,WUHU216HW,2013-07-20 02:54:00,
2013-07-19 21:55:00,77.0,71.1,29.87,South,180,0.0,0.0,82,0.00,,,0.05,WUHU216HW,2013-07-20 02:55:00,
2013-07-19 21:56:00,77.0,71.1,29.87,South,180,0.0,0.0,82,0.00,,,0.05,WUHU216HW,2013-07-20 02:56:00,
2013-07-19 21:57:00,77.0,71.1,29.88,South,180,0.0,0.0,82,0.00,,,0.05,WUHU216HW,2013-07-20 02:57:00,
2013-07-19 21:58:00,76.9,70.9,29.87,South,180,0.0,0.0,82,0.00,,,0.05,WUHU216HW,2013-07-20 02:58:00,
2013-07-19 21:59:00,76.9,70.9,29.88,South,180,0.0,0.0,82,0.00,,,0.05,WUHU216HW,2013-07-20 02:59:00,
2013-07-19 22:00:00,76.9,70.9,29.88,South,180,0.0,0.0,82,0.00,,,0.05,WUHU216HW,2013-07-20 03:00:00,
2013-07-19 22:01:00,76.9,70.9,29.87,South,180,0.0,0.0,82,0.00,,,0.05,WUHU216HW,2013-07-20 03:01:00,
2013-07-19 22:02:00,76.9,71.3,29.88,South,180,0.0,0.0,83,0.00,,,0.05,WUHU216HW,2013-07-20 03:02:00,
2013-07-19 22:03:00,76.9,70.9,29.88,South,180,0.0,0.0,82,0.00,,,0.05,WUHU216HW,2013-07-20 03:03:00,
2013-07-19 22:04:00,76.9,70.9,29.88,South,180,0.0,0.0,82,0.00,,,0.05,WUHU216HW,2013-07-20 03:04:00,
2013-07-19 22:05:00,76.9,70.9,29.88,South,180,0.0,0.0,82,0.00,,,0.05,WUHU216HW,2013-07-20 03:05:00,
2013-07-19 22:06:00,76.7,70.7,29.88,South,180,0.0,0.0,82,0.00,,,0.05,WUHU216HW,2013-07-20 03:06:00,
2013-07-19 22:07:00,76.7,70.7,29.88,South,180,0.0,0.0,82,0.00,,,0.05,WUHU216HW,2013-07-20 03:07:00,
2013-07-19 22:08:00,76.7,70.7,29.88,South,180,0.0,0.0,82,0.00,,,0.05,WUHU216HW,2013-07-20 03:08:00,
2013-07-19 22:09:00,76.7,71.1,29.88,South,180,0.0,0.0,83,0.00,,,0.05,WUHU216HW,2013-07-20 03:09:00,
2013-07-19 22:10:00,76.7,70.7,29.88,South,180,0.0,0.0,82,0.00,,,0.05,WUHU216HW,2013-07-20 03:10:00,
2013-07-19 22:11:00,76.7,70.7,29.88,South,180,0.0,0.0,82,0.00,,,0.05,WUHU216HW,2013-07-20 03:11:00,
2013-07-19 22:12:00,76.7,70.7,29.88,South,180,0.0,0.0,82,0.00,,,0.05,WUHU216HW,2013-07-20 03:12:00,
2013-07-19 22:13:00,76.7,70.7,29.88,South,180,0.0,0.0,82,0.00,,,0.05,WUHU216HW,2013-07-20 03:13:00,
2013-07-19 22:14:00,76.7,70.7,29.88,South,180,0.0,0.0,82,0.00,,,0.05,WUHU216HW,2013-07-20 03:14:00,
2013-07-19 22:15:00,76.7,71.1,29.88,South,180,0.0,0.0,83,0.00,,,0.05,WUHU216HW,2013-07-20 03:15:00,
2013-07-19 22:16:00,76.7,71.1,29.88,South,180,0.0,0.0,83,0.00,,,0.05,WUHU216HW,2013-07-20 03:16:00,
2013-07-19 22:17:00,76.5,70.9,29.88,South,180,0.0,0.0,83,0.00,,,0.05,WUHU216HW,2013-07-20 03:17:00,
2013-07-19 22:18:00,76.5,70.9,29.88,South,180,0.0,0.0,83,0.00,,,0.05,WUHU216HW,2013-07-20 03:18:00,
2013-07-19 22:19:00,76.5,70.9,29.89,South,180,0.0,0.0,83,0.00,,,0.05,WUHU216HW,2013-07-20 03:19:00,
2013-07-19 22:20:00,76.5,70.9,29.88,South,180,0.0,0.0,83,0.00,,,0.05,WUHU216HW,2013-07-20 03:20:00,
2013-07-19 22:21:00,76.5,70.9,29.89,South,180,0.0,0.0,83,0.00,,,0.05,WUHU216HW,2013-07-20 03:21:00,
2013-07-19 22:22:00,76.5,70.9,29.89,South,180,0.0,0.0,83,0.00,,,0.05,WUHU216HW,2013-07-20 03:22:00,
2013-07-19 22:23:00,76.5,70.9,29.88,South,180,0.0,0.0,83,0.00,,,0.05,WUHU216HW,2013-07-20 03:23:00,
2013-07-19 22:24:00,76.5,70.9,29.89,South,180,0.0,0.0,83,0.00,,,0.05,WUHU216HW,2013-07-20 03:24:00,
2013-07-19 22:25:00,76.5,70.9,29.89,South,180,0.0,0.0,83,0.00,,,0.05,WUHU216HW,2013-07-20 03:25:00,
2013-07-19 22:26:00,76.5,70.9,29.89,South,180,0.0,0.0,83,0.00,,,0.05,WUHU216HW,2013-07-20 03:26:00,
2013-07-19 22:27:00,76.5,70.9,29.89,South,180,0.0,0.0,83,0.00,,,0.05,WUHU216HW,2013-07-20 03:27:00,
2013-07-19 22:28:00,76.5,70.9,29.89,South,180,0.0,0.0,83,0.00,,,0.05,WUHU216HW,2013-07-20 03:28:00,
2013-07-19 22:29:00,76.5,70.9,29.89,South,180,0.0,0.0,83,0.00,,,0.05,WUHU216HW,2013-07-20 03:29:00,
2013-07-19 22:30:00,76.5,70.9,29.89,South,180,0.0,0.0,83,0.00,,,0.05,WUHU216HW,2013-07-20 03:30:00,
2013-07-19 22:31:00,76.5,70.9,29.89,South,180,0.0,0.0,83,0.00,,,0.05,WUHU216HW,2013-07-20 03:31:00,
2013-07-19 22:32:00,76.5,70.9,29.89,South,180,0.0,0.0,83,0.00,,,0.05,WUHU216HW,2013-07-20 03:32:00,
2013-07-19 22:33:00,76.5,70.9,29.88,South,180,0.0,0.0,83,0.00,,,0.05,WUHU216HW,2013-07-20 03:33:00,
2013-07-19 22:34:00,76.5,70.9,29.89,South,180,0.0,0.0,83,0.00,,,0.05,WUHU216HW,2013-07-20 03:34:00,
2013-07-19 22:35:00,76.5,70.9,29.89,South,180,0.0,0.0,83,0.00,,,0.05,WUHU216HW,2013-07-20 03:35:00,
2013-07-19 22:36:00,76.7,71.1,29.88,South,180,0.0,0.0,83,0.00,,,0.05,WUHU216HW,2013-07-20 03:36:00,
2013-07-19 22:37:00,76.7,71.1,29.89,South,180,0.0,0.0,83,0.00,,,0.05,WUHU216HW,2013-07-20 03:37:00,
2013-07-19 22:38:00,76.7,71.1,29.89,South,180,0.0,0.0,83,0.00,,,0.05,WUHU216HW,2013-07-20 03:38:00,
2013-07-19 22:39:00,76.7,71.1,29.89,South,180,0.0,0.0,83,0.00,,,0.05,WUHU216HW,2013-07-20 03:39:00,
2013-07-19 22:40:00,76.5,70.9,29.89,South,180,0.0,0.0,83,0.00,,,0.05,WUHU216HW,2013-07-20 03:40:00,
2013-07-19 22:41:00,76.5,70.9,29.89,South,180,0.0,0.0,83,0.00,,,0.05,WUHU216HW,2013-07-20 03:41:00,
2013-07-19 22:42:00,76.3,70.8,29.89,South,180,0.0,0.0,83,0.00,,,0.05,WUHU216HW,2013-07-20 03:42:00,
2013-07-19 22:43:00,76.3,71.1,29.88,South,180,0.0,0.0,84,0.00,,,0.05,WUHU216HW,2013-07-20 03:43:00,
2013-07-19 22:44:00,76.1,71.0,29.88,South,180,0.0,0.0,84,0.00,,,0.05,WUHU216HW,2013-07-20 03:44:00,
2013-07-19 22:45:00,76.0,71.2,29.88,South,180,0.0,0.0,85,0.00,,,0.05,WUHU216HW,2013-07-20 03:45:00,
2013-07-19 22:46:00,76.0,71.2,29.88,South,180,0.0,0.0,85,0.00,,,0.05,WUHU216HW,2013-07-20 03:46:00,
2013-07-19 22:47:00,75.8,71.0,29.88,South,180,0.0,0.0,85,0.00,,,0.05,WUHU216HW,2013-07-20 03:47:00,
2013-07-19 22:48:00,75.6,70.8,29.89,South,180,0.0,0.0,85,0.00,,,0.05,WUHU216HW,2013-07-20 03:48:00,
2013-07-19 22:49:00,75.6,70.8,29.88,South,180,0.0,0.0,85,0.00,,,0.05,WUHU216HW,2013-07-20 03:49:00,
2013-07-19 22:50:00,75.4,70.7,29.88,South,180,0.0,0.0,85,0.00,,,0.05,WUHU216HW,2013-07-20 03:50:00,
2013-07-19 22:51:00,75.2,70.5,29.89,South,180,0.0,0.0,85,0.00,,,0.05,WUHU216HW,2013-07-20 03:51:00,
2013-07-19 22:52:00,75.2,70.5,29.89,South,180,0.0,0.0,85,0.00,,,0.05,WUHU216HW,2013-07-20 03:52:00,
2013-07-19 22:53:00,75.2,70.8,29.89,South,180,0.0,0.0,86,0.00,,,0.05,WUHU216HW,2013-07-20 03:53:00,
2013-07-19 22:54:00,75.1,70.7,29.89,SSW,203,0.0,0.0,86,0.00,,,0.05,WUHU216HW,2013-07-20 03:54:00,
2013-07-19 22:55:00,75.1,70.7,29.89,SW,225,0.2,0.2,86,0.00,,,0.05,WUHU216HW,2013-07-20 03:55:00,
2013-07-19 22:56:00,75.1,70.7,29.89,WSW,248,0.2,0.2,86,0.00,,,0.05,WUHU216HW,2013-07-20 03:56:00,
2013-07-19 22:57:00,75.1,70.7,29.89,WSW,248,0.0,0.2,86,0.00,,,0.05,WUHU216HW,2013-07-20 03:57:00,
2013-07-19 22:58:00,74.9,70.5,29.89,WSW,248,0.0,0.2,86,0.00,,,0.05,WUHU216HW,2013-07-20 03:58:00,
2013-07-19 22:59:00,74.9,70.5,29.89,WSW,248,0.0,0.2,86,0.00,,,0.05,WUHU216HW,2013-07-20 03:59:00,
2013-07-19 23:00:00,74.9,70.5,29.89,WSW,248,0.0,0.2,86,0.00,,,0.05,WUHU216HW,2013-07-20 04:00:00,
2013-07-19 23:01:00,74.9,70.5,29.89,WSW,248,0.0,0.2,86,0.00,,,0.05,WUHU216HW,2013-07-20 04:01:00,
2013-07-19 23:02:00,74.9,70.5,29.89,WSW,248,0.0,0.2,86,0.00,,,0.05,WUHU216HW,2013-07-20 04:02:00,
2013-07-19 23:03:00,74.9,70.5,29.89,WSW,248,0.0,0.2,86,0.00,,,0.05,WUHU216HW,2013-07-20 04:03:00,
2013-07-19 23:04:00,74.7,70.3,29.89,WSW,248,0.0,0.2,86,0.00,,,0.05,WUHU216HW,2013-07-20 04:04:00,
2013-07-19 23:05:00,74.7,70.3,29.89,WSW,248,0.0,0.2,86,0.00,,,0.05,WUHU216HW,2013-07-20 04:05:00,
2013-07-19 23:06:00,74.7,70.3,29.89,WSW,248,0.0,0.2,86,0.00,,,0.05,WUHU216HW,2013-07-20 04:06:00,
2013-07-19 23:07:00,74.7,70.3,29.89,WSW,248,0.0,0.0,86,0.00,,,0.05,WUHU216HW,2013-07-20 04:07:00,
2013-07-19 23:08:00,74.7,70.3,29.89,WSW,248,0.0,0.0,86,0.00,,,0.05,WUHU216HW,2013-07-20 04:08:00,
2013-07-19 23:09:00,74.5,70.1,29.89,WSW,248,0.0,0.0,86,0.00,,,0.05,WUHU216HW,2013-07-20 04:09:00,
2013-07-19 23:10:00,74.5,70.1,29.89,WSW,248,0.0,0.0,86,0.00,,,0.05,WUHU216HW,2013-07-20 04:10:00,
2013-07-19 23:11:00,74.7,70.3,29.89,WSW,248,0.0,0.0,86,0.00,,,0.05,WUHU216HW,2013-07-20 04:11:00,
2013-07-19 23:12:00,74.5,70.1,29.89,WSW,248,0.0,0.0,86,0.00,,,0.05,WUHU216HW,2013-07-20 04:12:00,
2013-07-19 23:13:00,74.5,70.1,29.89,WSW,248,0.0,0.0,86,0.00,,,0.05,WUHU216HW,2013-07-20 04:13:00,
2013-07-19 23:14:00,74.5,70.1,29.89,WSW,248,0.0,0.0,86,0.00,,,0.05,WUHU216HW,2013-07-20 04:14:00,
2013-07-19 23:15:00,74.5,70.1,29.89,WSW,248,0.0,0.0,86,0.00,,,0.05,WUHU216HW,2013-07-20 04:15:00,
2013-07-19 23:16:00,74.5,70.1,29.89,WSW,248,0.0,0.0,86,0.00,,,0.05,WUHU216HW,2013-07-20 04:16:00,
2013-07-19 23:17:00,74.5,70.1,29.89,WSW,248,0.0,0.0,86,0.00,,,0.05,WUHU216HW,2013-07-20 04:17:00,
2013-07-19 23:18:00,74.5,70.1,29.89,WSW,248,0.0,0.0,86,0.00,,,0.05,WUHU216HW,2013-07-20 04:18:00,
2013-07-19 23:19:00,74.5,70.1,29.89,WSW,248,0.0,0.0,86,0.00,,,0.05,WUHU216HW,2013-07-20 04:19:00,
2013-07-19 23:20:00,74.5,70.5,29.89,WSW,248,0.0,0.0,87,0.00,,,0.05,WUHU216HW,2013-07-20 04:20:00,
2013-07-19 23:21:00,74.5,70.5,29.89,WSW,248,0.0,0.0,87,0.00,,,0.05,WUHU216HW,2013-07-20 04:21:00,
2013-07-19 23:22:00,74.5,70.5,29.89,WSW,248,0.0,0.0,87,0.00,,,0.05,WUHU216HW,2013-07-20 04:22:00,
2013-07-19 23:23:00,74.5,70.5,29.89,WSW,248,0.0,0.0,87,0.00,,,0.05,WUHU216HW,2013-07-20 04:23:00,
2013-07-19 23:24:00,74.5,70.5,29.89,WSW,248,0.0,0.0,87,0.00,,,0.05,WUHU216HW,2013-07-20 04:24:00,
2013-07-19 23:25:00,74.5,70.5,29.89,WSW,248,0.0,0.0,87,0.00,,,0.05,WUHU216HW,2013-07-20 04:25:00,
2013-07-19 23:26:00,74.5,70.5,29.89,WSW,248,0.0,0.0,87,0.00,,,0.05,WUHU216HW,2013-07-20 04:26:00,
2013-07-19 23:27:00,74.5,70.5,29.89,WSW,248,0.0,0.0,87,0.00,,,0.05,WUHU216HW,2013-07-20 04:27:00,
2013-07-19 23:28:00,74.5,70.5,29.89,WSW,248,0.0,0.0,87,0.00,,,0.05,WUHU216HW,2013-07-20 04:28:00,
2013-07-19 23:29:00,74.5,70.5,29.89,WSW,248,0.0,0.0,87,0.00,,,0.05,WUHU216HW,2013-07-20 04:29:00,
2013-07-19 23:30:00,74.5,70.5,29.89,WSW,248,0.0,0.0,87,0.00,,,0.05,WUHU216HW,2013-07-20 04:30:00,
2013-07-19 23:31:00,74.5,70.5,29.89,WSW,248,0.0,0.0,87,0.00,,,0.05,WUHU216HW,2013-07-20 04:31:00,
2013-07-19 23:32:00,74.5,70.5,29.90,WSW,248,0.0,0.0,87,0.00,,,0.05,WUHU216HW,2013-07-20 04:32:00,
2013-07-19 23:33:00,74.5,70.5,29.89,WSW,248,0.0,0.0,87,0.00,,,0.05,WUHU216HW,2013-07-20 04:33:00,
2013-07-19 23:34:00,74.3,70.3,29.90,WSW,248,0.0,0.0,87,0.00,,,0.05,WUHU216HW,2013-07-20 04:34:00,
2013-07-19 23:35:00,74.3,70.3,29.89,WSW,248,0.0,0.0,87,0.00,,,0.05,WUHU216HW,2013-07-20 04:35:00,
2013-07-19 23:36:00,74.3,70.3,29.90,WSW,248,0.0,0.0,87,0.00,,,0.05,WUHU216HW,2013-07-20 04:36:00,
2013-07-19 23:37:00,74.3,70.3,29.90,WSW,248,0.0,0.0,87,0.00,,,0.05,WUHU216HW,2013-07-20 04:37:00,
2013-07-19 23:38:00,74.3,70.3,29.89,WSW,248,0.0,0.0,87,0.00,,,0.05,WUHU216HW,2013-07-20 04:38:00,
2013-07-19 23:39:00,74.3,70.3,29.90,WSW,248,0.0,0.0,87,0.00,,,0.05,WUHU216HW,2013-07-20 04:39:00,
2013-07-19 23:40:00,74.3,70.3,29.90,WSW,248,0.0,0.0,87,0.00,,,0.05,WUHU216HW,2013-07-20 04:40:00,
2013-07-19 23:41:00,74.3,70.3,29.90,WSW,248,0.0,0.0,87,0.00,,,0.05,WUHU216HW,2013-07-20 04:41:00,
2013-07-19 23:42:00,74.3,70.3,29.90,WSW,248,0.0,0.0,87,0.00,,,0.05,WUHU216HW,2013-07-20 04:42:00,
2013-07-19 23:43:00,74.3,70.6,29.90,WSW,248,0.0,0.0,88,0.00,,,0.05,WUHU216HW,2013-07-20 04:43:00,
2013-07-19 23:44:00,74.3,70.6,29.90,WSW,248,0.0,0.0,88,0.00,,,0.05,WUHU216HW,2013-07-20 04:44:00,
2013-07-19 23:45:00,74.3,70.6,29.90,WSW,248,0.0,0.0,88,0.00,,,0.05,WUHU216HW,2013-07-20 04:45:00,
2013-07-19 23:46:00,74.3,70.9,29.90,South,180,0.0,0.0,89,0.00,,,0.05,WUHU216HW,2013-07-20 04:46:00,
2013-07-19 23:47:00,74.3,70.9,29.90,South,180,0.0,0.0,89,0.00,,,0.05,WUHU216HW,2013-07-20 04:47:00,
2013-07-19 23:48:00,74.3,70.9,29.90,SE,135,0.2,0.2,89,0.00,,,0.05,WUHU216HW,2013-07-20 04:48:00,
2013-07-19 23:49:00,74.3,70.9,29.90,SE,135,1.1,1.1,89,0.00,,,0.05,WUHU216HW,2013-07-20 04:49:00,
2013-07-19 23:50:00,74.3,70.9,29.90,SE,135,0.9,1.1,89,0.00,,,0.05,WUHU216HW,2013-07-20 04:50:00,
2013-07-19 23:51:00,74.2,70.7,29.90,ESE,113,1.1,1.1,89,0.00,,,0.05,WUHU216HW,2013-07-20 04:51:00,
2013-07-19 23:52:00,74.2,70.7,29.90,ESE,113,1.1,1.1,89,0.00,,,0.05,WUHU216HW,2013-07-20 04:52:00,
2013-07-19 23:53:00,74.2,70.7,29.90,ESE,113,1.3,1.3,89,0.00,,,0.05,WUHU216HW,2013-07-20 04:53:00,
2013-07-19 23:54:00,74.2,70.7,29.90,ESE,113,1.1,1.3,89,0.00,,,0.05,WUHU216HW,2013-07-20 04:54:00,
2013-07-19 23:55:00,74.2,70.7,29.90,ESE,113,1.6,1.6,89,0.00,,,0.05,WUHU216HW,2013-07-20 04:55:00,
2013-07-19 23:56:00,74.2,70.7,29.90,ESE,113,1.6,1.6,89,0.00,,,0.05,WUHU216HW,2013-07-20 04:56:00,
2013-07-19 23:57:00,74.0,70.6,29.90,ESE,113,1.3,1.6,89,0.00,,,0.05,WUHU216HW,2013-07-20 04:57:00,
2013-07-19 23:58:00,74.0,70.6,29.90,ESE,113,0.7,1.6,89,0.00,,,0.05,WUHU216HW,2013-07-20 04:58:00,
2013-07-19 23:59:00,74.0,70.6,29.90,ESE,113,0.4,1.6,89,0.00,,,0.05,WUHU216HW,2013-07-20 04:59:00,